GFSGL_sfc_rhum_000.txt.gz
RH
50 55 58 64 68 72 77 82 84 79 77 77 70 73 72 73 75 72 71 74 83 82 73 70 68 70 73 78 77 73 74 77 81 66 65 62 66 75 58 64 63 69 80
50 56 61 66 68 72 75 77 77 74 73 73 77 80 80 76 72 69 72 76 71 67 65 68 67 52 66 67 71 70 70 70 78 84 73 70 70 71 66 69 62 48 65
46 54 65 72 76 75 72 71 73 74 74 78 81 78 72 66 65 69 74 72 64 65 68 68 68 69 71 71 70 74 74 74 82 92 89 76 70 72 69 65 67 68 47
49 58 69 76 81 83 82 80 82 85 90 86 78 76 66 63 64 70 66 65 66 67 69 70 71 71 71 72 73 74 77 82 78 80 82 83 76 67 71 71 65 67 60
52 57 68 79 80 83 87 90 91 89 81 86 85 67 62 62 62 66 61 67 70 70 70 68 67 70 71 72 63 72 73 83 81 86 80 75 84 75 66 70 65 67 64
56 60 71 78 82 86 90 92 93 88 90 74 56 63 67 58 73 72 78 88 78 73 80 81 81 73 70 67 69 67 67 75 82 89 81 84 80 88 91 72 72 72 59
60 62 74 81 85 87 91 94 95 93 84 77 67 71 77 89 79 82 88 85 86 85 70 72 67 56 70 73 76 72 72 83 89 95 92 82 89 80 70 77 77 75 72
59 65 77 82 84 88 92 92 93 93 91 67 79 80 89 73 72 80 76 82 76 75 71 75 73 75 74 66 78 88 78 74 72 70 75 83 84 85 74 72 74 75 81
60 67 74 82 86 90 93 93 93 93 81 77 75 79 68 75 66 63 69 90 84 80 70 71 71 74 73 75 79 87 78 70 62 66 64 66 70 72 87 92 96 90 86
65 66 74 82 86 92 92 91 91 70 70 71 75 74 62 76 63 61 67 94 96 87 86 74 76 71 71 70 91 92 93 81 84 86 81 77 76 78 74 75 84 95 92
65 70 76 80 84 86 84 80 68 80 78 89 86 81 71 72 74 61 62 92 90 91 87 85 82 80 64 63 75 92 95 88 87 88 84 84 85 81 79 76 76 84 90
72 75 78 80 77 68 78 69 78 84 80 94 97 96 90 90 65 70 64 65 67 98 94 90 93 68 65 68 71 76 81 90 94 94 91 88 90 89 84 85 82 83 78
84 83 80 80 74 75 76 75 80 82 92 90 86 95 92 88 89 72 74 66 67 97 93 77 70 69 72 77 75 76 88 92 94 94 92 90 90 89 90 93 90 89 88
90 85 84 83 77 78 68 67 75 96 96 87 95 92 96 95 94 90 92 95 89 86 91 90 94 85 89 89 85 85 88 90 93 93 92 91 91 93 94 93 94 94 94
94 93 93 89 86 76 67 72 80 73 80 92 93 92 97 97 89 80 82 95 95 94 94 96 97 91 87 87 86 86 89 86 90 93 93 92 91 91 93 95 95 95 95
91 76 90 90 97 93 71 77 74 74 74 75 75 84 94 78 67 68 66 62 62 68 93 99 100 99 96 91 93 91 93 90 87 90 93 91 91 92 92 91 93 94 95
92 89 84 95 98 98 93 92 92 82 75 78 80 76 76 76 76 69 64 65 61 74 96 98 100 100 100 91 92 90 94 94 93 90 92 94 93 90 93 91 93 92 92
95 95 95 97 99 99 98 95 95 96 96 94 82 85 80 77 76 70 64 74 92 90 96 98 98 99 98 96 94 92 91 92 93 94 95 95 95 94 93 93 92 95 91
97 97 95 97 98 98 99 99 98 96 95 96 97 96 99 83 80 75 70 96 96 96 94 94 98 97 97 96 99 98 97 96 96 97 96 96 97 94 93 92 94 95 94
98 98 97 94 92 97 98 98 98 97 97 96 97 96 98 100 100 98 100 99 99 96 96 95 94 96 98 98 100 100 99 98 96 94 97 97 97 96 96 96 96 96 89
98 98 98 97 94 93 96 98 97 98 98 96 95 95 94 96 95 97 96 97 97 97 97 96 96 97 99 100 96 100 98 99 97 96 95 95 98 97 94 94 95 92 86
98 99 98 97 96 96 95 96 97 98 98 97 96 97 99 100 97 96 96 95 95 95 96 96 96 96 96 95 96 100 100 100 99 98 97 96 94 94 94 93 94 94 89
99 98 98 97 97 98 100 98 96 97 98 98 97 96 98 100 99 98 96 97 96 97 97 98 97 97 97 97 98 96 98 96 96 100 100 99 96 95 95 94 92 91 90
98 98 98 97 97 97 98 98 98 98 96 96 97 96 95 95 96 96 96 97 97 98 98 98 97 96 96 98 99 98 96 98 98 97 100 100 100 96 94 91 90 90 90
98 98 98 97 97 97 97 96 95 93 93 94 94 95 93 92 94 97 97 97 98 99 97 97 97 96 95 93 95 94 98 99 97 98 97 100 100 99 97 92 91 88 90
98 98 98 98 97 97 97 97 96 96 96 96 96 96 93 92 91 93 95 96 97 98 98 98 97 96 96 95 91 95 98 97 97 95 100 96 98 97 96 96 92 90 87

GFSGL_sfc_rhum_003.txt.gz
RH
34 41 45 44 47 48 48 51 54 60 61 60 59 58 57 55 53 54 54 52 56 57 58 53 49 45 42 39 40 39 40 42 52 41 35 39 46 46 41 43 46 50 48
36 40 43 47 49 50 52 54 58 59 58 59 59 58 57 56 52 50 52 48 52 52 50 48 46 38 44 44 44 45 44 45 48 49 44 55 50 50 49 54 45 37 50
31 33 40 47 52 52 55 59 61 62 60 64 63 65 54 53 45 48 53 53 51 48 46 50 49 49 49 49 49 49 54 50 56 63 50 44 46 46 51 49 52 52 43
32 34 44 52 55 57 59 62 66 68 70 65 67 63 59 44 45 50 48 47 47 48 51 52 54 56 57 57 62 70 67 64 56 56 58 50 50 44 60 54 52 52 43
37 37 45 54 57 57 62 64 67 71 70 70 64 45 48 47 43 49 46 51 56 56 55 53 54 63 68 63 57 61 58 61 62 60 56 51 51 52 79 73 56 46 44
40 44 45 57 57 59 62 67 68 69 69 57 55 52 54 49 78 81 70 54 50 47 48 46 45 52 51 63 64 65 64 64 68 64 70 56 48 48 58 76 82 59 45
42 43 48 55 59 61 62 60 64 67 69 67 56 55 59 60 74 78 74 46 45 47 46 44 44 42 54 49 54 59 66 69 69 72 73 59 55 52 62 76 72 70 58
39 42 47 54 58 59 62 60 67 66 64 63 56 54 57 55 66 64 67 53 49 47 46 48 49 51 50 58 60 64 54 48 50 51 61 57 53 50 58 68 59 58 53
41 43 44 52 56 60 59 63 62 60 59 60 55 57 45 46 59 61 59 61 60 56 53 52 53 52 61 69 60 66 54 48 55 64 74 73 69 69 68 68 85 74 76
42 44 46 49 57 59 60 62 60 56 45 52 56 48 56 53 59 60 59 66 75 65 58 53 62 64 70 61 66 72 76 70 57 59 59 57 61 55 68 62 56 82 80
48 51 51 52 56 58 60 55 52 49 57 68 66 59 52 54 56 60 61 72 69 66 58 54 58 71 63 63 64 71 81 71 73 70 60 55 55 56 55 54 52 57 65
54 57 58 60 58 56 58 54 50 55 62 72 83 75 62 66 58 63 64 66 64 74 71 61 70 64 65 66 63 70 71 77 80 81 78 72 71 70 62 60 61 62 54
63 63 65 65 62 58 57 53 52 56 61 66 63 72 63 65 60 65 69 73 66 73 71 65 64 68 66 58 65 71 74 74 80 83 81 76 76 75 76 80 73 65 65
69 69 70 68 67 56 54 50 52 63 64 62 66 67 64 63 67 61 68 71 74 68 71 64 74 74 73 70 63 62 68 70 77 83 81 79 81 86 88 88 81 84 82
73 66 66 73 71 66 55 50 57 52 58 62 64 68 84 84 73 67 72 73 74 71 79 73 68 68 65 60 62 64 65 62 70 81 82 81 80 80 84 88 89 88 91
77 67 73 77 76 77 84 65 72 74 75 76 76 80 86 76 70 66 68 68 64 64 69 74 81 82 77 66 68 68 67 66 65 76 81 80 81 82 80 79 82 89 90
80 78 78 85 83 87 88 84 71 69 74 80 82 83 80 77 76 74 70 67 68 66 74 73 83 85 79 65 63 63 68 70 74 76 82 84 85 81 81 79 79 79 82
81 91 87 85 82 85 87 89 88 83 92 84 81 74 79 81 79 75 73 67 72 74 72 74 78 79 75 65 63 64 65 71 71 75 84 87 88 86 84 81 79 82 75
79 83 94 94 92 87 84 87 91 92 92 89 81 84 83 88 83 81 79 82 81 75 71 71 75 76 74 71 79 81 83 80 80 81 84 85 90 82 82 82 84 88 77
81 96 96 94 92 84 83 87 87 90 91 88 85 85 73 89 93 93 95 93 90 82 79 76 74 74 78 79 84 87 83 80 76 72 79 87 88 84 82 83 83 82 72
81 85 88 98 93 90 87 86 85 88 87 85 86 98 89 82 84 86 85 91 89 83 85 81 84 85 85 86 78 82 78 80 78 75 74 78 86 83 77 80 80 76 71
89 88 94 96 93 94 93 92 87 85 84 85 86 92 91 92 87 87 88 90 90 87 84 85 84 82 80 79 79 85 83 84 82 76 75 78 80 77 77 76 78 78 74
92 97 97 95 95 94 97 92 95 94 91 90 86 86 89 95 91 87 89 93 91 91 90 87 91 88 85 88 86 82 82 76 78 80 80 78 78 78 79 78 74 73 73
100 100 98 98 100 96 96 96 97 94 90 92 92 91 90 94 96 94 93 96 92 92 92 92 88 85 82 90 90 84 78 81 81 77 81 80 80 77 78 72 74 76 74
100 100 100 100 98 100 98 96 97 98 98 98 98 98 96 98 97 96 94 91 90 90 90 92 91 86 88 89 87 84 80 86 84 80 77 80 84 86 82 72 78 73 74
99 99 100 99 99 100 100 100 100 100 100 100 100 100 100 98 97 98 96 96 92 90 90 90 91 90 88 86 85 84 88 90 84 86 78 74 80 78 78 76 74 77 73

GFSGL_sfc_rhum_006.txt.gz
RH
25 30 34 33 33 34 34 35 37 41 40 42 46 50 50 44 41 47 37 34 34 36 36 36 38 36 34 33 33 33 33 34 41 34 31 33 38 39 40 39 38 35 43
27 30 31 33 33 34 35 36 41 42 42 43 45 47 45 43 45 38 35 34 35 37 38 38 37 28 40 38 35 38 37 37 42 48 41 42 43 40 39 43 35 26 54
21 23 27 31 34 36 37 39 41 44 46 47 46 48 45 42 37 33 36 37 38 39 40 42 42 42 43 39 40 40 43 46 55 54 49 43 41 42 43 43 42 41 42
20 22 28 34 36 39 39 40 42 45 48 47 47 49 48 39 34 36 36 40 40 40 44 44 45 44 45 46 43 47 47 58 56 49 48 45 41 38 43 47 63 52 41
24 24 30 35 38 38 41 40 43 49 47 46 46 42 41 40 33 44 44 45 44 42 41 36 37 46 54 54 48 50 50 50 53 54 50 49 52 44 46 44 55 49 70
27 29 30 34 38 41 40 45 44 44 44 44 47 50 48 35 82 76 58 38 38 37 37 36 36 43 45 57 57 58 57 56 62 64 65 63 56 55 59 62 70 55 53
27 29 31 35 40 39 37 37 38 42 45 44 45 51 51 50 75 68 64 39 40 38 39 37 35 31 45 42 49 54 58 66 65 67 66 55 60 51 49 53 62 73 53
27 28 31 35 36 34 35 38 41 42 43 41 41 46 49 47 62 60 61 43 40 39 40 41 41 42 42 52 50 48 40 38 41 41 50 54 56 63 68 54 54 54 51
30 30 25 29 32 32 34 40 42 42 41 40 43 46 48 44 58 58 58 50 50 49 43 40 43 44 56 65 57 53 42 38 50 57 57 62 65 72 69 61 65 60 78
29 27 29 30 31 34 37 42 44 44 42 37 44 46 52 48 59 57 56 56 68 58 48 39 45 55 66 62 66 64 67 52 51 51 52 50 51 55 67 60 50 65 63
31 34 30 31 34 37 41 43 44 44 43 55 56 54 49 52 53 58 59 66 65 60 53 46 43 61 62 64 64 66 72 60 61 62 56 55 47 47 49 51 54 54 61
35 36 36 39 42 42 46 45 45 45 47 61 89 72 55 60 60 62 63 64 62 75 67 56 64 60 65 64 57 64 67 71 68 75 72 70 67 67 62 65 61 58 51
42 42 44 47 47 46 48 49 45 44 50 58 55 63 57 59 57 65 62 66 69 74 69 66 67 63 61 53 50 63 63 62 68 76 73 70 72 71 73 74 66 54 54
49 49 49 50 58 52 46 44 46 50 54 52 56 55 52 52 59 57 60 63 74 70 65 62 66 71 67 60 52 51 55 57 63 74 74 70 72 79 84 82 90 74 77
53 53 52 55 58 60 61 50 50 48 51 55 53 55 83 84 68 66 65 65 71 66 79 76 65 63 59 55 54 53 55 54 55 68 76 76 73 72 76 79 81 88 86
64 58 55 60 59 60 62 63 76 71 73 73 75 80 89 83 74 70 67 69 69 66 70 72 78 79 73 62 63 61 59 57 53 63 73 75 76 76 77 77 79 83 88
65 61 60 66 61 62 66 77 78 74 77 80 80 82 82 83 80 76 71 72 71 70 76 70 78 80 76 58 57 55 59 60 63 58 68 74 79 80 82 77 78 79 82
65 82 67 63 62 64 67 80 80 85 93 89 87 75 80 84 84 80 76 75 72 78 73 74 75 74 69 57 57 59 60 65 65 61 67 73 76 75 83 80 78 84 74
62 61 70 80 84 84 82 74 72 77 86 83 77 83 82 83 83 85 82 85 77 70 62 60 69 73 67 64 73 78 80 77 76 75 71 70 77 71 68 67 77 83 80
63 85 90 83 84 83 83 75 72 80 84 79 76 70 59 80 100 100 100 100 96 76 73 66 64 67 72 72 79 81 82 79 75 67 70 74 76 72 70 69 70 71 60
62 66 77 73 72 90 98 93 85 89 86 78 84 98 82 78 86 90 85 100 94 80 86 73 80 82 81 82 75 77 76 79 74 68 68 67 74 73 65 66 68 62 58
67 70 73 82 80 88 80 80 90 91 89 88 90 89 87 99 90 87 88 94 98 93 84 85 82 77 74 73 74 81 80 82 80 75 73 66 67 69 67 66 66 67 62
81 92 95 91 88 89 98 86 92 100 99 100 96 92 92 100 100 90 96 100 98 100 95 91 99 90 85 87 88 82 80 77 74 78 76 72 68 73 74 72 65 64 64
98 100 97 95 100 96 100 96 98 96 99 100 100 100 100 100 100 100 100 100 100 100 100 100 93 91 83 96 90 86 76 78 76 74 77 72 70 71 74 69 65 67 67
100 100 100 100 100 100 100 100 100 100 100 100 100 100 100 100 100 100 100 100 100 100 100 100 98 95 92 89 87 87 78 78 77 72 75 73 73 75 74 69 68 66 66
100 99 100 100 99 100 100 100 100 100 100 100 100 100 100 99 97 99 98 99 97 98 100 100 100 97 96 89 86 85 81 83 82 80 77 69 73 73 71 71 66 68 68

GFSGL_sfc_rhum_009.txt.gz
RH
28 28 35 30 31 31 31 31 32 35 33 33 34 38 37 38 37 40 42 44 37 38 40 42 40 38 37 36 35 34 33 35 43 37 31 33 40 43 39 40 40 43 40
26 30 31 31 30 30 31 31 33 35 35 36 37 37 36 36 36 37 38 35 37 39 41 41 40 32 40 36 35 36 37 37 40 46 44 48 48 44 43 44 36 30 39
24 24 26 28 30 31 32 33 33 34 36 38 37 38 36 44 40 39 34 37 42 44 41 46 44 42 38 37 39 40 39 33 43 58 58 51 44 41 41 40 38 44 33
19 20 23 29 30 32 34 35 35 35 38 39 37 37 40 36 31 32 33 38 42 44 48 41 38 37 40 47 42 44 41 46 44 48 47 44 44 44 46 50 54 52 51
21 20 25 29 32 32 35 36 35 39 37 36 37 42 46 40 33 45 44 46 42 41 40 34 34 42 47 49 44 48 49 49 47 46 51 54 52 58 52 47 58 57 54
25 26 27 29 29 32 36 38 38 36 34 34 35 39 49 40 85 73 58 42 38 37 39 37 35 46 46 54 57 57 54 54 55 55 56 59 56 48 51 63 64 60 61
26 25 27 30 30 34 33 30 32 35 36 36 35 35 45 48 77 66 60 41 42 42 40 38 35 28 44 40 52 57 54 60 67 61 62 59 70 57 66 77 67 65 66
25 26 28 28 29 29 29 29 31 35 36 36 35 37 40 54 67 60 60 49 45 43 41 41 40 40 48 56 51 49 43 39 36 36 51 54 49 49 53 51 54 50 50
28 27 26 24 24 26 27 29 32 35 36 36 34 35 37 51 64 59 58 50 51 49 44 41 39 38 64 64 58 56 46 42 41 54 53 58 65 67 62 66 68 62 75
24 26 22 23 24 26 28 31 33 35 36 34 36 38 58 52 63 59 56 56 60 57 49 44 50 51 63 61 66 64 68 51 44 45 47 52 54 52 65 64 60 72 67
27 28 26 24 26 29 33 35 37 39 40 50 52 50 51 54 60 62 58 62 64 60 53 50 48 60 59 62 63 64 69 58 59 59 57 57 53 57 60 54 60 68 79
31 30 30 31 32 33 42 42 42 43 48 53 81 63 57 54 65 66 62 64 61 70 66 58 64 66 64 63 60 52 61 66 68 66 71 67 63 67 61 60 59 58 58
37 38 38 39 41 42 46 48 48 42 49 60 64 74 58 61 74 68 69 65 68 77 68 66 68 66 61 59 52 55 67 60 62 68 75 71 66 66 68 78 96 80 53
49 46 49 51 49 50 47 46 43 48 55 58 63 59 55 44 50 63 70 70 77 75 74 67 69 72 72 72 69 56 56 58 58 61 68 66 70 72 76 73 82 90 89
60 58 54 63 58 49 47 52 61 48 51 62 60 60 83 85 62 66 70 69 72 71 77 75 67 65 60 61 57 55 57 58 57 59 65 74 74 68 69 74 76 80 95
69 66 65 60 60 53 53 58 70 76 77 69 71 78 87 77 76 73 71 67 66 72 71 72 75 82 78 65 64 60 59 58 57 59 62 62 70 74 72 74 73 79 84
66 68 66 72 58 54 67 76 79 71 78 76 75 76 79 85 84 81 74 72 72 74 78 72 79 80 79 65 58 56 60 60 64 60 62 65 68 65 73 80 75 77 76
68 79 62 61 65 74 73 77 80 86 91 90 85 74 78 82 84 85 82 78 76 77 71 70 73 77 71 62 58 58 64 74 70 63 68 71 72 70 70 64 72 83 77
57 58 65 76 83 83 84 82 79 82 83 81 78 90 87 84 85 86 88 83 80 74 68 69 77 70 67 68 76 79 80 79 78 79 72 70 77 69 67 63 63 66 69
57 74 81 79 82 85 81 79 80 82 84 83 83 79 62 76 100 100 100 100 95 80 78 71 66 69 75 76 85 87 83 82 81 78 73 75 74 73 70 66 70 67 58
60 67 82 83 76 76 81 82 78 84 84 82 87 97 82 76 88 92 88 98 96 85 87 78 80 86 91 92 77 80 79 77 74 77 73 70 74 73 67 65 64 61 57
68 72 76 84 86 91 86 81 84 83 82 84 86 90 91 96 90 87 86 92 93 89 85 86 83 78 80 80 82 93 82 83 81 76 79 74 68 68 72 70 67 65 61
79 88 87 85 93 96 100 90 92 98 93 96 92 90 94 100 99 91 94 100 96 95 92 87 95 87 85 92 92 86 84 80 78 75 76 75 70 70 75 76 72 66 64
89 97 94 93 99 95 100 100 100 96 94 98 100 100 100 100 100 100 100 100 100 100 100 100 99 94 84 95 99 89 80 82 77 72 76 75 71 67 73 72 69 66 67
100 100 100 100 100 100 100 99 99 100 100 100 100 100 100 100 100 100 100 100 100 100 100 100 99 99 100 97 92 88 83 79 78 72 76 76 73 72 73 71 71 68 69
98 98 99 100 100 100 100 98 100 100 100 100 100 100 100 98 96 100 100 97 95 92 96 97 99 100 100 99 98 90 85 81 84 80 76 71 75 75 76 76 71 70 68

GFSGL_sfc_rhum_012.txt.gz
RH
41 45 50 46 50 46 45 44 44 48 49 48 49 52 52 52 53 58 58 56 62 58 60 65 70 66 62 62 61 57 56 55 59 51 45 53 54 58 52 52 49 46 48
40 43 46 48 44 46 44 43 46 48 49 48 50 51 51 51 55 59 59 54 60 71 69 64 65 46 63 60 60 61 60 54 55 58 56 58 60 55 54 55 43 36 42
33 36 39 43 52 45 43 45 45 47 49 50 49 54 51 54 56 58 55 53 56 64 62 68 64 57 58 64 64 58 57 48 62 65 59 58 58 56 54 54 53 56 43
33 31 36 47 45 44 44 47 48 47 50 52 55 53 53 49 45 46 46 61 61 58 62 60 56 55 59 61 54 63 54 66 62 61 58 56 58 57 63 70 65 60 64
40 30 39 44 42 42 48 47 50 51 49 50 52 54 55 56 47 61 59 58 60 57 56 50 48 54 50 54 51 66 70 72 65 63 64 64 62 67 66 64 74 77 69
39 41 37 38 39 46 48 54 55 54 51 47 50 53 55 48 80 70 58 58 57 56 60 56 52 54 61 60 62 61 66 74 70 70 68 72 70 72 80 86 85 82 90
37 35 37 42 47 51 46 44 46 49 51 51 52 50 52 77 79 67 62 55 58 65 63 59 49 35 59 62 61 57 58 62 63 68 69 72 90 78 70 72 73 76 77
34 35 42 46 48 42 42 41 47 48 51 54 52 50 53 68 77 67 61 61 68 65 62 61 60 59 74 66 69 69 64 58 52 46 62 64 62 65 69 68 72 73 71
34 40 44 48 34 36 39 46 47 49 52 54 49 49 56 73 73 65 59 70 75 70 61 59 57 53 68 61 72 74 67 60 50 52 52 56 64 67 68 74 86 89 88
45 41 36 44 34 38 46 48 52 53 51 51 52 54 66 78 72 64 59 88 83 87 72 64 62 61 58 60 82 85 85 74 66 59 65 64 63 66 68 87 85 92 92
42 56 62 44 41 43 49 52 55 58 61 72 71 69 67 80 77 66 63 78 92 90 83 82 83 61 65 65 61 83 84 68 70 76 70 69 74 72 73 71 81 95 95
66 71 47 47 44 41 59 60 60 63 73 72 84 84 88 77 77 72 68 68 66 89 86 88 89 67 67 66 67 66 60 75 88 92 81 80 81 82 75 77 78 81 98
65 53 59 54 51 51 64 64 69 66 82 83 91 94 93 93 87 78 74 71 70 90 92 84 72 70 72 73 68 63 74 90 92 92 88 77 79 77 78 80 80 74 85
68 70 65 69 65 61 57 60 68 85 89 90 92 92 88 86 93 91 87 85 80 86 84 86 86 83 84 82 86 85 89 92 90 92 92 82 85 87 85 82 83 85 86
69 72 72 82 74 68 61 64 82 76 82 87 92 91 91 95 91 80 87 89 91 91 90 92 93 91 91 89 91 87 89 89 90 92 92 90 83 80 82 83 82 85 88
80 80 85 89 88 74 72 72 72 76 80 82 75 82 96 87 76 72 73 74 71 75 90 94 95 94 95 94 93 92 90 87 90 90 93 92 91 88 80 78 84 88 90
80 81 89 86 86 82 88 90 89 85 79 85 82 78 75 88 80 82 80 80 78 79 96 94 92 93 93 93 93 92 90 92 88 92 92 93 94 92 86 83 85 86 86
79 83 81 82 82 90 91 93 89 90 91 87 91 81 78 80 80 86 86 86 94 86 90 89 89 91 92 92 91 90 92 93 93 94 92 94 95 95 94 87 84 92 89
73 74 81 92 95 94 95 94 87 87 88 88 85 90 90 82 83 82 86 92 92 88 87 89 88 86 89 91 93 94 94 95 94 94 96 95 93 95 95 93 90 86 86
65 79 81 81 85 85 86 84 83 85 87 86 98 96 90 95 97 94 93 94 92 88 86 84 80 85 92 93 94 94 96 96 95 96 95 93 93 94 95 94 93 93 84
72 74 81 90 87 84 86 88 90 90 86 86 86 92 91 98 99 96 93 93 92 90 88 86 85 84 87 92 93 93 94 94 94 94 94 92 93 93 93 94 93 91 87
83 81 81 84 86 92 92 96 98 98 92 93 89 88 87 91 96 98 98 97 95 90 88 88 88 85 85 87 88 90 91 93 94 95 94 94 93 93 94 94 94 92 91
88 95 96 90 86 87 99 96 92 86 90 91 90 92 91 92 98 98 98 99 98 98 98 98 99 98 91 87 87 86 89 89 90 91 92 94 94 94 94 94 94 92 92
78 83 84 89 95 97 98 99 98 97 96 94 97 98 94 98 99 99 99 100 100 100 99 99 98 98 98 98 98 94 85 87 91 90 88 93 94 92 92 94 93 89 89
84 86 87 86 85 87 97 98 100 99 93 94 98 96 98 100 99 99 99 99 99 100 99 99 99 98 98 98 98 98 95 90 89 90 89 93 92 89 91 92 92 90 88
91 90 92 95 96 97 95 97 99 98 98 99 100 100 99 98 97 96 94 94 94 93 92 95 94 96 96 98 98 98 98 96 94 85 89 87 93 94 95 93 89 91 90

GFSGL_sfc_rhum_015.txt.gz
RH
55 53 56 55 56 51 52 52 48 50 47 51 54 56 56 57 60 64 64 56 69 75 74 68 71 68 74 73 73 72 73 73 76 66 62 66 66 68 58 64 58 52 55
53 54 55 53 50 52 51 48 52 49 52 51 52 57 57 60 61 61 63 63 68 72 74 70 68 51 65 68 73 68 68 68 76 74 67 65 68 66 66 65 49 45 54
46 52 57 54 51 49 48 47 50 51 51 50 53 58 60 58 57 61 65 62 65 65 68 68 70 67 66 70 64 67 70 56 75 80 68 67 65 68 60 65 63 65 49
46 47 57 56 51 50 50 51 53 51 50 50 55 60 64 54 52 57 60 64 62 60 62 62 61 59 56 59 56 63 60 75 75 76 68 65 66 63 71 74 78 80 78
46 41 48 53 53 49 51 50 52 55 50 51 57 61 63 60 55 63 59 60 59 60 62 56 55 56 56 58 54 67 74 80 83 77 72 68 68 70 76 84 87 81 71
42 43 47 53 53 55 54 54 55 58 55 55 57 58 60 56 77 72 63 60 56 59 67 65 58 58 63 63 59 60 64 78 85 89 77 74 72 81 90 90 84 77 75
49 46 51 54 55 61 58 54 53 56 57 57 56 57 59 71 79 72 65 56 58 68 70 63 57 52 66 64 64 62 64 62 62 78 78 75 77 75 79 77 78 86 85
45 49 57 62 60 58 59 54 54 55 55 58 60 60 69 71 81 75 67 60 67 73 68 67 66 72 71 68 71 74 74 71 63 57 70 67 67 69 79 73 76 79 82
50 54 60 63 61 63 58 62 62 61 60 60 60 60 77 84 80 72 62 71 76 74 69 67 68 63 68 58 72 77 78 74 58 59 60 65 68 67 67 82 94 96 94
61 68 63 60 61 54 62 67 65 63 59 60 57 65 75 84 79 69 65 93 83 91 79 71 64 69 60 61 83 85 89 76 78 71 71 72 69 74 73 81 82 95 93
68 67 68 68 65 62 61 65 66 67 69 78 76 79 84 84 82 72 67 81 91 93 88 88 87 65 65 68 66 86 87 77 78 80 78 77 75 83 79 79 81 91 95
70 70 74 70 61 54 63 68 69 71 82 85 90 88 92 89 79 79 75 72 76 89 84 90 92 73 68 68 73 74 71 78 95 94 96 86 89 83 78 80 82 84 83
82 84 74 71 66 62 69 70 77 82 94 89 93 93 94 94 92 83 80 79 76 90 91 85 78 75 72 80 77 73 81 90 93 98 93 96 90 79 82 85 82 77 79
76 81 80 80 77 75 69 71 79 95 96 96 96 96 95 94 97 96 89 89 85 86 84 86 92 92 93 88 88 85 92 95 94 94 96 93 95 94 95 88 88 86 94
78 81 84 91 86 82 79 81 88 82 88 92 93 94 94 94 93 89 88 91 93 87 96 98 97 97 94 92 94 92 93 94 95 95 94 96 94 96 91 86 83 91 97
86 92 94 94 94 92 89 88 83 82 80 83 85 87 90 88 86 88 87 83 83 89 97 98 96 96 96 94 94 93 96 94 96 94 95 97 96 97 94 86 84 90 92
90 91 93 93 93 92 93 94 94 91 87 84 83 86 85 85 86 81 80 83 83 86 96 95 97 95 93 91 94 94 95 95 92 96 96 95 96 96 96 93 92 89 87
89 89 92 92 93 92 91 92 98 98 91 87 88 88 88 86 83 85 83 82 97 89 94 92 92 93 92 92 92 93 96 97 97 97 97 97 98 98 97 96 94 97 96
84 90 90 90 90 91 93 95 89 82 86 85 90 96 94 89 86 84 82 94 94 93 91 91 91 92 91 90 92 93 93 96 97 98 98 98 98 97 97 97 96 94 95
88 90 89 89 88 90 85 85 85 85 88 90 91 90 95 99 97 96 98 97 96 92 90 89 88 91 92 92 92 91 94 96 97 98 97 99 98 98 96 97 97 98 94
86 90 91 90 91 92 90 90 91 91 90 91 92 90 93 96 95 96 94 95 97 94 93 94 88 88 88 88 92 93 91 92 95 96 97 96 99 95 95 96 97 97 96
88 86 83 83 81 83 88 96 97 92 90 97 95 96 94 93 95 95 96 97 94 91 91 96 96 89 88 87 88 90 91 92 92 93 94 95 96 96 96 97 97 97 95
81 84 88 89 87 86 87 86 87 91 97 99 91 97 97 96 95 96 95 98 99 98 95 97 98 95 91 90 88 88 92 91 88 88 91 94 96 96 97 97 97 97 94
95 93 89 88 90 90 92 93 89 88 91 95 95 98 98 93 98 94 98 99 99 99 99 99 99 98 98 99 98 98 96 91 88 88 87 90 93 94 97 96 96 96 95
92 91 90 92 93 93 93 92 94 95 97 98 98 98 92 99 98 99 99 99 99 98 99 99 99 99 99 98 98 98 98 97 96 93 90 88 90 91 94 96 97 96 94
90 90 90 91 92 92 93 94 94 94 94 95 95 96 96 96 96 96 96 95 94 94 92 92 90 92 94 94 90 94 98 98 97 96 95 90 89 93 94 92 93 97 93

GFSGL_sfc_rhum_018.txt.gz
RH
67 65 59 56 58 56 52 53 55 54 52 51 53 55 55 59 62 62 63 63 72 74 75 73 72 71 72 72 73 72 71 71 76 75 72 73 70 72 61 69 60 60 64
47 50 54 59 56 56 55 57 57 53 54 51 53 54 58 62 64 64 65 67 71 74 76 73 69 56 66 71 71 65 66 68 76 78 73 69 71 68 69 70 55 48 62
46 56 58 61 58 50 52 52 58 55 55 53 52 57 61 65 64 62 66 69 68 71 73 71 69 69 64 70 64 66 69 56 75 82 74 72 71 70 66 68 71 72 62
48 53 58 56 49 52 54 60 61 60 58 55 55 58 64 65 59 59 64 68 68 63 62 62 61 61 58 61 60 63 63 74 77 80 75 71 70 65 76 79 82 78 74
55 56 57 52 52 57 64 62 62 63 56 55 58 61 63 63 58 68 64 67 64 63 65 58 60 60 60 59 59 72 75 82 83 82 79 77 73 76 79 81 91 78 69
56 55 50 59 58 63 66 65 61 59 59 61 60 66 66 55 71 77 71 68 61 61 65 67 58 56 65 65 63 61 64 76 84 93 84 80 82 74 84 82 86 80 83
56 47 61 59 62 66 61 62 63 65 64 62 65 66 68 70 78 80 74 62 58 62 74 65 58 58 67 63 61 60 61 59 59 85 87 82 79 71 75 85 87 88 88
58 57 60 64 63 65 68 67 72 70 63 64 63 65 71 68 84 78 72 61 63 69 74 69 69 69 70 66 69 70 70 70 67 62 78 77 74 76 81 76 88 93 88
62 65 62 65 64 67 75 79 74 72 69 69 63 66 70 80 84 78 68 67 70 76 71 70 69 72 68 65 71 74 74 72 56 61 62 65 68 66 71 85 90 94 92
67 63 65 68 68 76 81 83 79 70 65 67 69 67 77 84 86 78 68 87 83 88 80 75 67 64 71 65 84 86 91 74 74 74 74 70 74 73 70 83 88 96 94
73 74 75 78 85 86 84 73 68 72 77 84 85 84 82 85 88 78 73 83 85 86 86 84 84 69 66 67 71 90 90 76 81 84 79 78 80 77 77 77 86 92 95
75 84 87 87 80 66 67 69 72 76 84 89 93 92 94 88 83 81 78 76 76 88 86 85 89 75 71 73 74 76 76 85 95 96 93 89 88 81 76 77 82 86 88
82 88 89 78 76 72 78 81 83 79 94 92 97 98 95 94 90 84 83 81 80 88 87 81 76 75 75 79 77 77 83 94 95 98 92 95 89 80 80 83 81 78 79
82 83 84 88 87 84 83 82 88 94 94 94 93 95 96 96 94 92 92 90 86 86 84 83 89 93 95 94 95 86 92 96 95 95 97 95 93 95 95 92 90 88 95
82 85 89 94 92 93 91 91 92 90 90 89 88 91 94 94 90 86 88 93 92 87 97 98 98 99 97 96 95 94 95 96 97 98 95 93 96 97 96 94 94 90 98
86 90 94 96 95 95 95 92 85 86 85 86 83 86 90 86 84 84 88 88 85 87 96 99 94 96 97 95 93 94 95 95 96 94 95 96 97 97 97 95 95 97 94
91 91 94 95 94 94 92 93 91 82 87 89 86 86 87 86 86 87 87 90 88 94 97 92 97 97 95 92 93 95 94 94 93 92 96 95 97 97 98 97 97 96 90
90 92 94 94 93 92 92 90 90 90 88 87 87 81 80 83 86 89 86 90 96 98 96 96 96 94 93 90 92 94 94 97 95 94 97 97 98 98 98 98 97 99 97
94 93 93 94 92 91 91 90 89 90 91 93 87 91 88 86 87 91 90 93 97 95 92 92 89 89 90 88 92 94 93 95 94 95 96 98 98 98 98 97 98 96 98
90 92 94 89 85 83 81 81 82 91 97 97 91 91 87 100 98 97 96 95 96 94 97 93 92 89 91 91 92 93 93 96 94 95 96 97 98 100 98 97 98 99 97
83 83 86 86 88 88 90 91 88 88 87 84 85 97 96 92 96 97 90 94 96 93 92 92 95 96 96 95 94 94 94 94 93 92 93 96 100 99 96 97 97 98 98
90 91 92 88 84 89 90 86 89 89 88 85 85 87 87 94 97 96 97 96 94 92 90 92 94 93 93 96 95 94 93 92 92 92 93 95 96 96 96 97 98 99 97
91 90 87 85 90 88 91 89 91 93 92 92 94 96 90 92 92 93 96 96 98 98 94 93 96 96 95 97 97 97 95 92 89 89 93 94 95 95 96 97 98 99 98
94 92 88 90 92 91 92 93 92 90 91 91 92 94 94 96 99 99 98 99 99 99 98 99 99 98 98 98 98 96 96 93 92 92 94 96 94 95 96 98 97 98 98
95 97 93 95 95 94 93 91 91 91 92 93 94 94 94 93 94 95 96 96 95 95 94 94 95 96 96 98 99 99 99 97 95 95 96 96 96 93 93 94 97 98 98
95 96 98 94 94 93 93 93 92 92 92 92 93 94 95 94 94 95 94 94 95 93 94 94 94 92 92 94 91 92 97 96 99 98 96 96 95 96 92 91 92 95 94

GFSGL_sfc_rhum_021.txt.gz
RH
68 69 72 63 62 58 55 53 55 57 58 57 58 58 57 57 64 66 65 63 71 75 78 79 77 76 81 78 78 77 74 72 76 68 73 73 72 70 65 71 69 68 70
63 68 64 66 60 56 51 56 60 54 58 56 58 56 58 60 64 67 68 67 75 79 79 78 75 63 72 70 74 68 69 68 72 74 75 74 73 68 69 74 60 52 66
74 70 64 58 54 56 61 57 56 58 62 58 57 57 57 63 66 71 70 74 78 78 77 80 76 77 76 75 71 70 70 58 75 84 79 76 77 73 70 70 70 71 66
68 66 66 60 57 61 51 55 57 59 60 58 58 58 62 65 67 68 66 73 75 76 79 80 76 72 66 64 63 66 63 73 78 83 78 75 78 72 78 81 70 66 66
66 62 61 66 62 54 59 58 64 64 58 56 58 62 67 65 61 71 68 74 74 71 70 64 64 64 59 61 60 67 75 82 84 82 80 84 77 80 75 69 75 76 76
62 57 62 64 60 66 66 68 68 65 60 60 66 70 73 60 67 77 77 75 69 67 68 68 62 61 67 71 63 70 74 78 82 91 90 87 82 81 82 85 89 86 86
62 64 66 73 69 67 64 66 68 71 78 80 73 67 70 74 78 79 84 74 69 69 65 68 62 52 70 75 71 65 64 63 62 81 91 84 89 78 80 87 88 90 91
73 74 72 67 68 68 66 72 78 81 82 82 73 68 74 71 80 83 85 72 69 67 72 74 71 69 74 68 68 71 69 68 66 62 76 82 80 80 84 78 91 91 87
73 73 68 70 71 75 81 88 91 92 88 75 70 72 73 75 79 85 78 72 69 71 73 72 72 73 70 70 75 75 73 73 57 60 62 65 67 68 69 81 90 92 90
76 72 70 72 82 90 93 93 92 83 70 71 76 79 80 82 82 86 75 86 80 83 83 79 78 75 71 72 85 86 93 82 74 71 74 74 72 75 70 77 87 95 88
75 81 83 87 91 92 92 91 84 75 77 85 88 90 89 87 86 88 80 81 81 84 83 85 81 74 71 72 71 90 92 81 83 88 87 85 80 80 74 72 81 93 91
82 86 89 92 91 86 87 73 72 81 87 88 92 92 93 91 86 86 85 77 77 85 82 83 87 76 72 71 74 80 76 88 98 99 99 96 93 90 74 74 78 83 87
92 92 92 86 82 81 87 87 90 89 94 91 92 93 91 92 95 85 86 84 82 86 83 83 80 76 73 79 79 80 85 97 98 100 98 96 95 82 78 84 82 77 78
82 84 87 90 90 90 91 92 95 96 95 92 94 92 90 93 96 96 90 88 88 89 85 84 86 86 91 94 96 89 96 96 97 97 98 98 97 96 96 93 96 90 94
84 87 89 94 92 92 91 93 94 92 91 91 90 89 91 88 87 87 91 93 90 87 89 96 95 97 94 92 96 95 96 97 99 98 98 97 96 97 97 96 97 95 99
91 93 95 96 95 93 92 88 86 89 88 87 87 87 84 84 82 82 85 88 86 88 96 97 96 96 93 89 93 94 96 96 96 97 97 95 94 97 96 97 98 99 99
95 94 93 93 93 95 94 96 96 85 82 84 88 87 87 85 83 86 88 88 89 93 97 96 96 95 94 94 95 95 93 92 92 96 96 93 95 95 98 98 98 98 97
91 92 97 97 96 92 90 88 84 82 86 86 82 86 82 83 85 84 83 93 97 98 96 94 93 92 94 95 96 94 93 94 97 96 96 95 96 95 98 98 98 99 98
85 88 90 95 94 93 92 90 88 87 88 85 79 74 76 92 98 88 85 98 98 95 94 94 93 96 96 94 96 91 91 93 96 98 96 94 96 96 97 98 98 97 98
86 90 93 94 93 87 87 89 86 86 86 87 89 88 82 83 91 94 93 95 94 95 96 91 90 92 95 96 96 93 94 95 96 96 95 95 95 97 97 98 100 99 98
90 86 91 88 88 89 90 92 88 90 92 89 89 88 90 94 95 93 86 85 94 97 97 96 93 93 94 94 95 96 96 94 93 94 95 95 95 96 96 96 97 96 97
89 83 84 89 89 91 91 88 91 92 88 90 89 86 85 88 91 91 94 97 98 96 91 95 94 93 92 93 94 96 96 96 94 93 94 95 95 96 96 96 98 99 99
93 93 91 87 92 93 93 91 92 92 91 91 90 90 90 92 92 92 93 94 98 98 98 99 98 94 94 94 94 96 96 96 91 91 95 94 95 96 96 96 96 100 100
97 98 91 89 94 94 95 95 94 93 92 92 92 92 92 93 94 94 94 94 94 95 96 96 96 96 97 99 98 98 97 96 97 96 96 96 95 95 96 96 96 97 99
98 100 99 97 100 98 96 94 94 93 93 93 93 92 90 90 91 92 94 94 94 94 94 95 95 95 96 96 97 98 99 98 98 96 97 97 96 95 95 93 94 97 98
98 98 100 100 99 98 97 97 96 95 95 94 93 92 92 91 89 92 93 93 93 93 94 94 94 94 95 96 95 93 96 97 98 99 98 97 96 96 95 95 94 94 95

GFSGL_sfc_rhum_024.txt.gz
RH
88 90 91 86 83 75 66 63 59 60 58 60 61 63 63 64 65 68 74 74 73 74 79 85 83 81 85 86 78 75 72 70 72 61 65 62 63 60 59 61 64 64 65
88 87 87 84 73 65 64 57 58 58 61 59 61 60 61 64 67 71 72 68 75 78 79 84 81 69 78 78 77 72 68 67 64 65 66 65 66 62 63 66 58 52 59
84 87 84 76 67 59 56 58 60 60 61 60 60 61 62 64 66 73 75 75 78 80 81 83 80 82 82 80 75 72 68 57 68 75 71 70 68 66 63 64 66 62 56
84 80 82 79 68 62 59 68 67 62 62 61 61 62 63 62 67 69 71 77 79 80 82 83 83 82 79 74 69 68 63 67 70 75 76 69 68 64 71 73 64 61 64
83 80 80 79 74 73 70 65 67 66 60 60 63 63 71 78 61 71 74 77 79 81 82 81 80 72 68 67 60 65 66 71 76 76 71 69 69 69 74 65 72 73 72
81 79 78 78 74 78 77 70 72 65 63 64 68 84 90 66 72 77 79 80 77 79 76 74 66 69 73 75 75 64 66 77 77 78 74 73 70 74 76 81 85 78 76
80 77 79 82 81 78 68 68 70 74 79 88 90 88 79 75 76 81 84 89 83 75 74 67 68 56 70 68 76 76 74 70 67 76 80 73 81 75 74 84 81 84 82
83 83 80 77 76 70 72 75 83 87 92 94 92 84 78 70 79 82 85 92 84 78 71 69 72 66 69 71 74 75 69 64 65 64 71 68 74 73 78 76 81 80 75
82 80 77 74 75 78 85 92 94 96 95 93 86 75 76 80 80 81 88 92 82 75 69 74 72 71 70 72 74 73 67 66 62 66 64 71 70 70 69 81 83 87 89
81 80 80 81 86 91 94 96 95 95 91 79 78 79 82 87 84 83 89 91 86 81 77 77 78 72 74 76 87 84 86 70 74 68 65 68 72 74 73 72 71 92 90
87 90 88 88 92 92 93 95 92 89 88 88 88 87 87 88 87 84 87 88 84 83 80 81 79 82 79 75 76 88 86 73 84 79 75 82 81 78 75 70 69 80 88
93 94 94 93 92 88 91 87 85 88 90 92 94 90 93 88 84 86 86 88 81 88 83 81 83 78 77 76 75 81 78 88 96 96 97 95 92 88 76 67 67 74 78
90 88 86 84 84 89 90 92 94 93 97 94 94 92 88 91 91 84 88 89 90 89 82 82 79 78 80 81 80 78 83 93 96 100 97 92 89 78 73 76 75 70 70
86 89 91 92 92 91 92 94 95 97 97 93 93 92 91 88 94 91 90 94 91 93 89 84 84 85 86 84 85 83 86 93 93 94 93 90 88 88 86 83 87 84 88
92 93 94 95 94 94 93 95 95 93 94 94 93 94 94 91 85 85 84 91 93 91 92 98 98 96 97 94 95 88 89 94 96 96 97 95 91 87 86 85 88 88 94
88 92 96 97 97 94 92 85 80 83 83 86 88 92 89 87 86 86 86 83 84 88 96 97 97 96 96 92 94 92 94 95 93 92 95 94 93 92 87 85 89 92 92
92 90 92 91 90 89 90 91 94 78 69 72 73 75 74 77 78 76 82 89 95 94 98 97 96 96 94 93 92 91 93 94 95 92 90 93 94 90 92 88 90 92 90
85 91 95 95 96 95 96 95 95 93 93 88 74 71 73 77 80 81 80 81 88 95 98 97 94 95 94 93 92 92 93 96 96 92 94 95 96 93 94 92 91 95 91
82 89 93 98 98 93 92 92 89 90 89 89 84 80 80 80 78 75 77 88 85 89 90 95 95 95 96 95 94 95 97 96 96 95 93 93 96 92 94 92 92 96 95
83 86 89 88 90 91 89 91 88 89 90 88 88 89 85 85 89 90 88 91 92 93 89 91 93 90 94 96 95 95 96 97 96 94 94 94 96 94 93 95 95 97 89
84 81 89 88 89 89 91 93 91 91 91 90 90 89 87 91 93 92 91 91 92 92 93 97 91 96 97 95 94 95 94 95 93 95 93 92 96 96 94 94 94 93 88
83 79 81 88 88 94 92 89 93 92 91 92 90 87 86 90 90 90 89 90 91 91 93 94 98 97 97 94 94 95 95 95 95 95 94 92 94 94 95 95 96 95 91
92 94 89 86 91 96 95 92 95 95 94 94 92 92 91 92 92 90 90 91 91 93 92 93 94 95 98 98 94 93 96 93 91 94 95 94 95 95 95 95 94 96 95
96 100 93 92 98 95 100 100 99 95 94 94 95 94 93 93 93 91 91 91 91 91 94 94 94 94 94 95 96 98 97 97 96 96 96 95 94 94 95 94 94 94 92
99 100 100 100 100 100 100 100 100 99 97 96 96 95 93 93 92 91 90 90 89 92 92 94 94 94 94 95 96 96 96 98 98 97 97 97 96 96 94 94 94 93 95
99 99 100 100 100 100 100 100 100 100 98 98 96 95 95 94 93 92 90 90 89 89 92 93 93 94 94 94 94 95 96 96 97 98 98 97 96 96 95 95 95 94 91

GFSGL_sfc_rhum_027.txt.gz
RH
76 82 85 85 82 77 74 70 70 66 66 60 64 56 61 60 54 57 57 60 64 61 58 57 56 57 54 54 55 55 52 49 49 36 36 38 42 41 39 35 36 38 38
81 81 82 82 79 78 75 75 72 71 63 58 58 56 50 52 52 52 56 50 56 55 53 57 56 50 60 58 55 54 50 47 46 43 37 38 41 43 41 39 33 33 38
77 74 75 77 76 75 72 72 68 60 61 56 50 48 51 51 50 58 61 58 58 56 54 56 54 58 58 53 54 52 48 43 44 45 42 38 42 39 38 34 38 40 33
68 70 75 75 72 69 64 59 61 61 61 52 50 47 54 53 56 74 68 58 61 57 59 60 57 59 57 54 54 53 48 46 43 43 41 41 39 38 38 39 40 37 38
68 67 70 71 66 60 61 67 67 65 61 59 66 64 73 79 83 86 69 59 59 59 62 59 60 63 69 62 49 48 46 45 44 44 44 41 39 38 36 41 44 42 42
69 68 66 67 62 65 68 73 72 66 64 53 65 81 83 81 91 88 75 59 58 59 59 58 57 75 76 80 76 66 50 48 50 47 44 45 43 39 42 49 53 51 49
69 67 66 65 64 70 71 70 70 66 71 79 85 88 87 85 86 82 83 59 60 60 60 56 52 46 62 48 72 80 75 69 64 50 53 47 52 41 44 51 50 50 50
66 67 66 65 64 63 65 77 83 86 91 91 89 80 82 76 83 86 83 62 60 59 60 58 57 52 49 52 48 51 52 54 55 50 48 46 44 41 48 53 60 57 46
66 65 63 63 65 69 77 88 92 92 94 84 76 84 81 87 89 84 79 65 64 61 58 57 56 52 62 71 55 56 52 49 55 64 63 68 63 69 69 62 66 60 68
71 68 66 67 71 79 81 86 85 80 80 85 91 90 92 82 77 84 79 69 75 70 63 58 76 57 73 80 66 67 66 47 46 48 50 54 60 55 69 64 53 69 64
71 69 70 70 74 75 82 88 90 91 91 89 77 72 69 70 67 82 84 75 77 75 69 62 59 80 78 77 77 74 80 56 60 54 49 43 46 50 51 50 50 55 64
76 77 77 78 79 76 75 71 67 67 72 74 87 75 71 71 76 78 84 86 78 90 79 69 71 79 82 82 78 77 81 80 71 73 70 64 63 60 48 48 50 52 50
62 66 67 66 66 65 66 67 65 66 73 76 76 80 74 73 71 82 86 85 88 93 84 82 80 81 83 82 83 78 84 80 80 83 76 67 60 54 50 60 60 53 47
74 72 67 65 63 59 56 58 59 66 70 70 73 75 78 76 76 74 79 80 82 84 86 84 84 80 80 76 73 81 76 78 78 79 73 64 61 71 73 65 69 63 66
64 61 60 60 54 51 48 55 58 56 70 70 70 73 84 87 80 77 78 81 83 91 99 98 97 92 82 77 77 78 83 87 93 91 88 78 74 70 71 67 70 64 74
58 56 67 65 63 54 53 50 64 67 68 69 70 74 74 74 75 75 75 75 77 83 86 89 99 99 95 92 90 90 90 91 90 90 94 84 77 74 71 69 70 71 72
60 62 63 66 62 61 62 63 66 60 64 68 69 69 69 73 76 76 73 75 74 81 87 87 89 99 97 90 92 94 93 88 88 91 93 92 84 77 79 75 76 74 74
63 79 67 64 64 66 68 69 68 72 77 72 64 66 70 74 76 74 75 72 75 74 78 88 92 90 93 88 84 89 90 87 89 90 93 94 90 83 81 79 76 81 75
53 58 69 73 72 74 70 70 69 71 73 71 66 64 69 76 74 73 74 80 83 79 75 74 80 84 85 88 96 98 98 99 98 92 94 92 92 81 80 76 75 81 83
60 74 72 70 70 69 68 70 68 71 72 72 71 73 68 74 83 84 83 85 84 79 80 77 78 80 88 94 98 99 100 97 95 92 94 94 91 85 80 80 84 86 77
61 64 76 67 68 69 72 73 71 74 74 74 76 78 82 81 82 81 79 83 84 82 86 81 86 89 92 96 94 99 95 92 89 90 90 92 91 87 79 79 83 82 75
66 65 66 70 69 76 72 69 75 76 73 75 76 75 78 80 79 79 78 83 85 82 82 88 87 88 91 92 95 100 97 95 94 90 90 93 92 89 81 82 85 87 82
72 75 70 67 72 76 78 73 80 81 79 81 79 78 80 84 84 80 83 86 83 86 85 86 91 89 90 93 94 95 98 94 89 94 94 93 92 91 85 84 85 88 87
75 81 71 74 80 77 83 86 84 79 81 83 86 85 84 85 87 86 86 85 85 86 88 91 90 90 91 93 94 93 91 96 99 94 95 93 93 92 84 83 86 88 87
79 82 84 84 88 88 87 83 85 86 86 87 87 87 82 84 84 85 85 84 86 88 87 88 91 90 91 93 93 93 92 94 98 97 97 97 93 94 85 84 85 85 87
78 77 82 86 87 87 87 88 87 87 88 88 88 88 87 86 84 86 85 86 86 88 87 87 87 89 91 91 91 94 93 93 94 95 98 95 95 94 94 93 91 90 90

GFSGL_sfc_rhum_030.txt.gz
RH
50 58 65 69 78 82 78 76 69 62 57 59 68 86 78 76 59 59 52 42 61 54 49 45 44 38 36 35 36 36 37 38 40 34 28 28 35 39 34 33 33 31 28
49 56 62 76 76 77 75 74 72 65 69 73 76 68 56 49 47 50 44 47 56 61 48 45 41 31 43 42 38 42 40 38 38 42 36 32 34 35 36 38 28 21 27
54 59 64 69 73 76 77 78 73 72 77 75 66 55 53 52 44 53 52 66 79 59 44 43 42 42 45 43 42 42 38 33 38 40 38 33 32 30 33 32 31 31 23
56 57 61 67 66 68 71 72 68 66 68 62 60 52 56 44 40 58 74 78 67 51 50 47 44 44 44 46 43 44 41 41 41 39 37 35 30 29 30 31 28 28 28
55 54 58 61 61 60 61 59 58 62 59 60 59 65 52 58 65 80 76 76 61 52 50 45 46 50 61 57 40 45 45 44 42 39 37 35 30 29 30 29 30 31 34
55 56 56 58 55 56 56 59 63 61 58 65 58 74 75 74 98 98 93 76 58 52 51 47 44 59 64 79 76 73 56 48 49 44 40 37 34 33 32 33 35 39 38
54 54 56 56 55 58 54 53 57 62 68 72 73 72 78 74 95 93 91 70 72 64 54 49 43 34 50 48 73 81 74 71 66 47 46 38 40 36 36 35 37 38 40
51 53 53 54 54 52 53 59 72 75 80 77 79 71 67 66 89 90 94 88 71 53 48 45 44 44 41 46 49 52 50 50 53 42 44 38 36 37 37 35 44 46 42
50 50 50 52 53 54 57 63 67 64 67 71 68 68 78 78 87 94 91 63 54 51 44 44 43 44 55 74 53 52 50 50 59 70 68 67 66 63 56 46 56 54 64
55 53 52 52 55 60 63 68 67 66 70 77 83 88 93 90 84 90 76 63 62 58 53 48 64 61 69 80 58 58 62 52 45 42 46 56 65 57 72 57 47 61 56
53 54 56 57 64 67 72 80 83 85 84 80 69 60 56 59 57 80 83 69 68 67 61 56 53 74 80 81 74 63 70 56 56 43 39 38 39 37 38 46 45 46 55
57 60 62 64 60 55 54 48 44 46 53 57 71 60 58 58 70 74 83 85 82 84 76 70 67 76 82 83 78 72 77 82 72 64 60 52 48 43 37 37 39 41 41
47 47 47 46 45 45 49 50 46 48 55 60 57 62 54 57 53 79 74 74 70 79 78 83 87 87 86 81 85 77 80 75 88 86 78 62 54 48 44 46 45 42 43
49 49 48 48 44 41 35 34 37 46 50 48 50 52 52 53 54 61 62 62 64 65 67 68 76 81 96 96 92 76 74 74 80 81 75 66 64 72 59 53 56 56 59
46 45 45 45 36 33 31 39 44 48 60 58 58 56 77 78 67 71 72 70 74 73 82 87 74 66 66 75 82 92 94 80 87 89 86 86 86 88 82 61 58 57 65
41 41 52 47 43 33 33 36 70 66 66 67 68 72 71 68 70 72 72 72 73 70 70 78 91 93 85 68 73 84 96 97 96 96 98 90 94 91 84 69 60 63 64
39 43 45 48 42 42 44 45 47 53 57 57 60 63 65 70 72 73 72 72 68 64 72 70 82 87 86 70 78 79 88 88 96 98 98 97 93 90 95 89 72 66 65
47 64 44 44 44 49 50 53 53 59 66 61 53 55 60 65 70 69 68 66 64 62 64 70 76 78 74 70 71 81 90 84 98 97 100 98 100 94 95 89 73 74 65
38 42 53 59 61 58 56 55 54 58 60 58 55 51 55 64 65 63 64 70 74 69 64 66 71 72 75 77 85 87 95 100 100 100 100 97 100 90 92 85 73 70 68
51 66 62 55 56 56 55 56 53 58 60 60 59 61 58 64 76 76 75 78 77 70 71 69 69 72 80 81 89 92 94 100 100 98 100 100 100 95 93 90 83 77 66
44 52 66 54 54 56 60 61 58 62 64 63 65 71 73 73 73 72 70 75 76 73 77 75 78 82 83 83 83 89 89 94 100 98 95 94 100 96 93 85 80 68 64
52 52 54 59 57 66 63 58 64 65 63 65 67 67 67 72 70 70 69 76 79 74 73 77 79 79 79 84 87 92 92 95 100 100 99 89 90 94 95 92 85 80 70
60 66 61 57 63 66 70 65 70 74 72 73 70 70 71 76 77 72 76 80 76 78 77 78 83 82 80 83 89 90 92 92 92 96 100 99 93 94 97 95 84 84 81
66 74 62 66 74 70 77 81 78 71 73 76 80 80 78 79 82 80 80 80 79 80 81 82 82 83 82 88 89 90 88 92 92 92 100 100 94 89 97 94 86 84 83
74 77 76 75 80 81 82 78 79 80 80 81 82 81 76 78 77 80 80 79 78 80 80 84 82 82 83 86 89 91 92 92 93 93 97 99 99 98 95 94 88 82 83
71 70 74 77 78 80 81 82 82 81 81 82 82 82 82 80 78 81 80 78 78 80 80 80 81 81 83 81 85 90 91 92 92 92 93 96 97 96 95 98 93 86 84

GFSGL_sfc_rhum_033.txt.gz
RH
43 50 61 66 75 73 78 78 74 70 62 57 64 66 71 82 86 85 83 64 57 53 64 63 55 47 42 36 35 35 35 36 43 36 30 33 35 35 32 35 36 35 34
44 48 64 81 84 82 83 78 79 76 68 67 60 64 75 80 77 75 73 55 50 59 80 72 59 39 43 42 40 44 40 42 42 47 39 36 38 36 39 38 30 25 28
41 43 55 79 84 87 88 88 86 80 77 70 70 76 79 78 71 72 58 48 67 77 76 65 51 48 48 45 46 45 44 39 42 45 43 38 35 35 35 34 34 33 24
45 49 54 66 76 78 79 77 77 73 74 74 76 78 79 67 57 54 64 72 79 80 78 62 50 48 49 50 48 51 48 52 51 49 45 42 36 36 32 32 35 31 26
50 51 59 61 59 60 67 69 72 74 68 68 72 70 71 61 58 64 78 82 81 80 74 56 53 56 66 64 46 53 55 54 53 51 48 43 38 38 36 30 31 31 32
48 50 52 53 52 55 56 57 60 60 59 58 60 56 67 64 97 95 82 70 79 80 74 64 58 64 61 73 71 73 63 60 60 56 52 49 43 40 37 38 36 37 37
48 49 51 51 54 56 52 51 52 54 56 63 69 74 76 80 97 96 93 78 83 85 85 84 65 48 50 40 50 77 78 80 77 61 60 57 51 43 42 42 40 37 37
46 48 50 51 51 49 49 51 56 58 60 62 60 56 57 58 91 92 91 90 93 89 81 60 50 47 44 47 45 48 48 52 60 52 51 53 50 44 40 37 42 40 43
45 46 46 48 49 50 53 58 58 59 58 60 56 56 62 70 92 90 94 89 69 59 49 45 44 44 56 68 55 60 54 52 56 70 67 67 65 63 53 44 52 50 69
48 47 46 46 49 56 65 67 71 67 70 65 76 80 86 82 82 93 84 64 66 63 57 51 64 60 69 74 66 65 69 57 57 60 59 63 67 60 73 52 46 63 60
45 46 50 55 61 64 66 68 70 69 70 74 67 56 50 52 57 85 87 72 83 86 78 73 69 79 86 90 91 76 72 64 67 66 76 63 50 49 52 55 52 53 63
51 53 56 57 53 50 48 43 38 42 49 55 61 58 56 56 78 80 75 71 69 69 66 66 66 72 75 76 81 88 90 80 77 84 93 77 61 52 46 45 52 53 50
44 42 40 36 35 35 39 40 37 40 48 54 48 53 47 51 47 76 68 69 65 68 65 69 72 74 73 69 69 71 93 95 94 93 96 87 66 54 52 55 53 46 42
42 41 39 37 36 33 27 27 31 46 47 46 47 49 48 53 53 63 61 61 63 62 65 70 74 76 78 81 78 69 69 82 94 97 94 79 72 69 69 68 67 62 63
39 38 39 38 32 30 32 36 43 54 58 55 58 54 75 75 68 70 70 67 71 69 80 76 70 64 67 67 67 66 69 68 82 95 97 98 91 81 94 76 72 74 80
39 40 48 46 38 28 31 51 69 63 65 66 65 69 68 67 68 69 69 68 68 72 66 70 76 79 78 71 72 73 74 74 82 86 98 98 98 98 98 89 85 89 79
40 41 46 46 39 38 40 42 41 68 63 65 62 57 57 64 66 68 66 65 67 59 64 63 74 79 82 72 73 75 77 75 79 96 97 99 99 99 98 97 94 85 84
43 68 39 39 40 44 44 48 48 54 62 59 62 51 53 58 66 66 62 63 59 56 58 62 69 70 71 72 74 75 78 80 82 90 99 96 100 98 98 95 89 91 81
37 40 50 56 57 55 52 51 50 52 56 56 51 54 51 60 61 62 60 67 70 64 58 58 64 68 73 76 84 84 87 86 86 93 94 99 100 98 98 94 84 90 89
51 62 60 51 52 52 50 52 49 54 56 56 57 56 56 64 75 73 72 74 74 66 66 64 64 70 80 81 87 88 88 86 88 88 90 100 100 100 98 97 91 92 88
45 53 67 50 51 52 57 58 54 58 61 60 62 70 72 68 74 68 66 70 71 68 72 69 75 81 82 85 81 86 84 87 89 92 93 99 100 98 96 97 95 87 81
48 48 52 57 55 64 62 56 60 63 61 61 63 64 62 71 68 67 66 72 76 72 69 73 77 77 80 83 87 91 88 89 90 92 93 94 98 97 96 96 98 95 84
58 64 59 54 63 62 69 63 67 71 69 70 68 68 69 73 74 69 73 78 75 76 77 77 84 83 80 86 86 88 92 89 90 93 94 92 93 97 99 96 95 95 87
64 70 61 60 69 70 74 78 75 68 69 73 77 77 75 76 78 76 78 79 78 78 80 82 81 82 85 85 86 85 85 91 90 92 94 94 94 97 98 96 95 95 90
71 74 73 73 77 78 79 75 76 77 77 78 79 78 73 74 73 75 77 77 76 78 78 81 85 81 80 83 85 84 86 88 92 93 93 94 95 100 94 93 93 94 96
68 68 72 75 77 77 78 79 79 79 79 79 78 78 77 75 73 75 76 76 76 77 79 80 80 78 80 80 76 80 82 90 92 93 94 93 95 96 94 92 97 96 95

GFSGL_sfc_rhum_036.txt.gz
RH
46 58 73 83 88 84 79 92 90 86 87 82 78 80 77 77 84 86 89 90 90 84 78 85 80 76 71 65 63 61 59 60 61 62 56 52 55 56 46 56 59 58 57
55 76 79 79 82 89 92 88 89 86 84 75 74 73 74 83 85 88 90 80 83 83 87 84 84 68 72 64 62 62 64 63 68 72 65 63 60 57 57 58 46 32 45
51 68 81 87 93 90 92 93 94 93 90 84 78 79 84 84 84 83 84 87 84 83 86 86 79 81 75 68 68 67 69 53 68 74 69 67 66 64 59 57 57 57 41
53 83 85 88 88 93 94 92 86 82 82 85 85 83 85 85 80 79 84 85 88 87 87 80 80 79 75 69 64 63 61 70 66 68 68 67 71 64 64 62 62 61 53
62 66 80 84 84 86 90 87 84 81 80 80 84 85 84 80 78 77 82 90 86 82 83 77 77 76 79 75 62 68 71 74 76 79 77 73 69 70 66 63 60 57 57
63 65 65 69 65 75 78 82 85 82 77 79 81 81 81 68 84 91 87 82 76 84 91 84 80 82 80 80 78 76 70 70 70 72 71 74 71 74 76 75 65 64 64
59 59 60 61 64 68 64 65 69 74 74 75 76 78 86 90 94 94 90 87 88 90 90 87 84 74 77 69 70 75 80 81 79 69 70 71 74 70 84 72 66 63 67
55 56 57 60 59 58 59 63 71 72 78 79 77 76 78 75 94 93 94 91 94 92 91 92 92 86 68 66 69 70 63 61 61 66 80 74 72 69 82 68 71 71 64
52 54 53 57 57 59 63 68 71 72 74 74 67 68 68 88 92 93 93 95 91 84 68 69 72 72 85 88 87 92 88 77 59 69 71 73 75 72 80 81 86 88 90
52 52 51 52 57 66 76 80 78 74 71 71 84 88 89 86 91 90 84 91 92 94 81 70 75 77 78 78 82 82 81 81 87 89 86 74 79 78 75 64 70 81 88
50 51 54 62 71 70 69 76 79 82 84 90 87 82 73 83 85 76 74 84 89 86 84 78 79 74 75 70 71 73 73 69 75 80 86 90 82 84 78 69 67 66 73
58 60 63 66 62 64 72 70 63 66 75 80 81 85 87 85 78 74 68 68 69 81 77 77 78 70 67 68 74 76 78 78 81 85 81 84 85 98 83 71 67 64 62
60 60 56 49 44 45 54 54 56 62 74 80 82 88 82 89 88 73 67 65 66 80 76 72 69 70 72 76 75 72 78 84 89 92 91 82 85 89 97 83 72 69 65
49 48 48 47 44 43 34 40 60 75 81 82 85 84 87 82 87 81 77 80 75 75 76 79 80 80 80 76 69 69 69 74 77 87 94 92 84 92 98 97 95 80 78
48 45 48 52 45 46 51 59 71 64 74 83 82 82 93 94 83 74 73 77 82 76 82 84 80 79 75 73 72 70 72 73 78 79 83 84 85 96 97 97 97 85 87
47 53 70 68 59 44 57 62 72 68 67 67 67 75 84 70 65 67 67 67 65 68 81 84 88 89 85 78 78 78 77 77 77 81 82 85 89 88 97 99 98 97 96
56 54 66 72 69 65 68 74 86 72 65 67 65 61 63 62 62 65 65 63 65 66 88 88 90 87 84 76 78 79 82 78 79 81 83 86 95 96 94 95 96 96 97
55 71 59 62 64 72 69 72 74 78 87 88 69 61 64 60 62 62 64 62 76 71 77 81 83 83 79 77 79 80 82 84 86 83 87 89 92 93 98 99 98 96 97
56 61 71 75 77 75 73 72 72 73 77 78 76 75 72 63 63 63 60 89 90 83 77 75 80 80 81 80 85 86 87 88 86 88 90 89 88 92 98 98 97 98 97
75 77 74 72 71 70 70 68 65 71 76 79 78 79 76 78 87 87 92 93 93 87 86 81 79 81 84 84 87 87 88 88 85 88 90 91 90 91 93 96 98 97 96
84 74 82 68 67 68 74 75 70 76 79 80 84 92 79 80 85 86 87 90 92 89 89 90 88 86 86 86 83 87 89 87 87 88 91 91 93 93 92 98 97 97 97
64 64 65 71 64 80 76 69 76 78 76 78 82 81 77 91 87 88 87 92 94 91 88 87 88 85 85 84 87 93 90 90 87 91 89 88 92 93 93 97 99 98 97
78 78 68 64 72 75 85 78 84 87 85 85 82 83 86 91 94 91 92 94 92 94 92 88 90 87 82 87 90 88 92 91 93 91 92 91 91 93 92 94 98 98 97
76 81 70 75 85 79 88 92 88 81 84 88 92 91 91 92 94 94 94 94 95 93 90 93 85 84 91 87 86 84 86 92 86 87 93 93 92 92 93 93 98 98 97
83 86 85 85 89 90 92 88 90 89 90 91 91 93 87 89 89 91 92 94 92 92 90 85 87 86 84 85 89 87 93 85 88 92 92 93 94 94 94 94 99 98 97
80 80 84 88 89 91 90 91 91 90 91 91 92 91 91 91 88 90 89 87 93 87 85 85 83 82 85 88 82 91 86 89 90 89 94 93 94 93 94 94 98 98 97

GFSGL_sfc_rhum_039.txt.gz
RH
68 61 64 80 79 76 90 96 97 96 93 94 95 95 91 92 90 86 89 92 90 93 91 87 83 84 82 80 84 73 67 67 77 72 69 61 60 61 54 69 60 67 66
70 69 77 93 95 98 97 98 98 92 91 92 92 89 85 85 88 88 90 87 89 92 91 91 84 76 85 84 83 82 72 69 74 76 76 72 67 66 65 67 54 45 56
69 65 97 96 92 97 98 97 94 94 92 84 82 83 81 88 88 89 86 89 91 90 89 90 84 80 84 94 88 82 72 59 71 85 81 81 79 73 67 63 61 63 46
87 94 97 97 96 97 96 96 96 93 94 95 86 84 87 89 85 84 87 91 92 91 90 84 78 82 89 87 81 85 78 81 81 77 75 78 85 74 76 73 76 74 61
91 95 97 97 96 97 94 90 86 87 88 87 89 90 89 87 85 88 91 93 88 89 85 79 79 86 89 88 79 81 82 80 79 78 89 89 86 86 82 69 78 65 66
87 90 91 90 92 92 90 89 87 85 83 85 88 91 93 83 95 92 89 87 80 81 89 90 88 86 86 90 90 90 90 91 89 89 85 85 78 84 82 82 82 84 71
76 75 77 79 80 83 86 85 83 84 89 92 93 92 93 90 92 92 90 90 93 92 92 93 86 76 89 90 85 86 85 82 85 84 83 77 78 75 80 85 92 81 73
72 72 73 72 73 73 75 79 85 88 90 92 92 94 94 92 92 90 92 93 94 93 92 93 95 91 94 83 82 84 80 78 77 76 86 85 84 81 83 79 80 81 85
72 71 68 70 69 71 76 80 84 85 87 87 84 88 91 93 94 95 94 95 92 86 76 79 79 81 81 79 81 82 72 61 49 57 63 71 76 75 81 85 95 92 96
68 67 65 66 70 80 87 90 90 89 85 83 88 88 94 95 94 90 88 96 90 91 80 77 79 79 78 74 76 80 84 78 76 77 77 74 74 75 77 82 82 96 97
64 68 72 75 82 84 88 90 92 94 92 93 92 95 89 82 80 75 74 82 90 90 89 85 85 74 68 65 69 84 87 82 82 86 86 85 83 79 77 85 76 76 98
72 77 79 78 74 78 87 88 86 92 94 91 94 96 90 82 76 72 69 69 70 86 83 89 88 68 70 74 78 69 66 78 80 81 82 87 93 87 82 76 84 74 78
75 77 77 74 75 77 87 81 78 84 85 87 87 96 95 93 89 74 69 67 71 88 84 74 71 75 77 82 67 63 75 79 82 86 85 82 82 77 75 92 91 92 80
72 70 66 61 56 52 60 64 72 83 87 84 83 89 94 93 92 88 81 88 81 80 82 84 85 87 90 86 76 70 74 78 80 85 83 83 79 80 83 81 91 98 97
61 56 61 61 60 68 75 71 68 77 82 85 95 88 94 97 82 73 72 78 91 82 93 97 95 92 80 77 75 74 77 76 82 82 86 84 82 82 83 83 80 97 96
59 65 77 76 69 60 69 73 69 68 66 67 73 81 83 72 64 66 64 66 64 68 90 98 98 97 93 82 84 84 82 83 82 83 88 84 88 88 90 86 84 96 98
70 63 74 69 70 79 77 77 85 78 69 67 65 63 68 64 63 62 62 62 63 70 95 96 97 97 95 84 84 84 87 84 82 86 87 88 89 90 87 91 92 99 99
72 77 74 79 80 79 77 81 86 87 92 88 69 64 65 63 61 59 62 63 88 81 86 95 97 97 90 84 85 87 87 87 87 87 87 89 91 92 92 90 91 95 97
73 78 81 83 82 79 82 85 82 83 83 84 86 81 75 64 60 59 69 95 97 96 89 86 96 97 93 92 96 97 94 91 91 89 89 88 91 90 89 87 91 91 98
88 92 92 92 91 90 88 84 78 80 84 85 86 88 80 84 94 95 96 97 98 95 96 94 95 94 98 96 98 96 91 91 89 88 90 90 90 88 92 91 90 96 97
94 95 96 93 87 87 89 86 82 87 87 86 91 92 81 84 91 96 94 98 98 97 99 99 98 99 99 96 87 92 93 91 89 89 90 92 87 93 90 90 91 92 97
94 91 88 88 86 93 85 78 87 87 87 88 90 89 87 96 96 95 95 98 98 98 98 98 99 99 96 91 93 95 92 91 90 90 93 88 88 91 93 93 93 92 96
95 96 89 86 86 85 92 91 92 94 92 93 92 94 96 98 98 96 97 99 99 98 98 99 99 95 94 97 97 94 94 93 92 94 93 91 90 90 93 94 93 93 94
92 93 85 88 92 89 96 96 95 94 95 97 98 98 98 98 98 99 99 99 99 100 100 98 97 97 95 91 93 89 91 93 93 92 94 93 92 89 92 93 93 94 92
95 94 93 94 96 97 98 97 97 97 97 98 99 98 97 98 100 99 100 99 100 100 97 97 100 93 91 91 90 93 94 91 90 91 93 93 93 93 93 93 94 93 94
91 90 94 96 97 97 98 99 99 98 98 99 99 100 100 100 99 100 99 100 98 98 97 99 96 91 92 90 87 92 90 89 91 90 93 93 93 92 93 94 94 94 95

GFSGL_sfc_rhum_042.txt.gz
RH
69 67 66 70 71 80 91 92 97 97 98 98 97 96 96 95 94 91 91 92 90 93 94 94 91 86 90 90 90 90 85 75 79 78 77 68 66 64 59 87 82 76 72
66 71 82 91 95 96 98 98 99 98 98 97 96 96 91 90 91 90 92 91 91 90 94 92 88 80 86 87 89 89 86 79 77 78 79 78 74 69 70 73 68 53 58
76 83 93 92 95 92 96 96 97 96 97 94 95 94 93 92 92 91 90 91 89 90 91 89 89 88 86 90 92 92 84 77 88 91 81 86 85 80 76 70 69 67 54
78 81 81 91 91 89 89 96 97 96 96 96 94 92 91 92 88 88 88 90 92 92 89 86 85 80 83 91 87 88 82 87 86 86 85 88 93 85 89 83 80 76 69
76 79 74 90 91 95 98 97 96 96 96 94 96 95 92 90 88 90 90 93 93 94 91 82 81 83 90 91 88 93 95 95 94 92 93 92 85 86 92 91 88 81 78
92 91 94 96 96 96 94 93 93 94 94 93 94 93 94 89 97 96 92 91 88 89 89 90 85 87 89 92 86 85 88 95 95 97 95 95 91 93 91 94 89 89 91
96 95 96 96 97 95 93 92 92 90 89 92 95 95 94 94 96 96 94 90 89 93 92 89 88 82 82 76 83 82 83 82 86 94 95 90 92 84 87 91 96 98 97
91 93 93 94 95 94 93 94 94 90 91 96 96 95 93 91 95 93 93 94 95 95 92 86 80 78 84 84 83 82 76 72 64 55 71 72 73 70 79 78 80 79 75
88 86 85 85 86 86 87 90 90 90 93 94 94 94 94 98 92 94 94 97 91 86 72 72 74 81 74 72 77 78 76 76 64 69 72 78 81 82 81 86 92 90 89
78 77 74 74 76 82 87 89 91 90 89 89 95 94 96 99 96 94 91 88 82 78 77 73 72 76 72 66 79 87 91 88 87 82 78 84 84 84 81 86 88 96 93
72 74 78 80 83 84 89 89 93 95 95 97 96 89 83 82 81 77 74 78 86 84 80 80 85 70 65 69 74 90 85 75 78 82 79 77 78 78 77 71 76 86 92
78 82 85 85 82 84 89 92 90 92 95 98 95 92 86 84 77 74 72 73 71 82 77 84 82 69 73 75 77 62 63 82 89 84 83 81 81 78 76 74 74 76 77
83 84 85 84 85 87 93 96 96 93 94 97 93 95 95 89 86 71 69 70 71 81 78 72 70 73 77 83 64 63 79 86 87 89 86 82 80 78 75 77 77 75 78
85 88 87 73 74 72 70 80 85 90 92 95 94 96 94 89 86 79 78 83 79 76 80 82 85 88 91 84 78 70 75 79 81 86 86 83 81 80 81 80 86 84 85
71 67 69 76 74 68 67 71 78 82 82 87 92 90 95 95 79 71 72 79 88 83 92 95 95 85 81 74 78 76 79 78 83 86 88 88 84 83 82 78 79 82 92
66 71 77 77 75 60 63 76 74 72 76 76 78 83 84 74 67 62 62 62 62 66 88 94 96 97 93 84 88 86 85 85 84 85 88 88 89 89 88 84 82 87 93
71 72 79 78 76 75 75 77 84 80 71 68 71 76 78 71 64 60 60 61 61 67 92 92 97 97 96 83 87 86 89 87 84 90 91 90 91 90 89 87 84 88 90
76 80 76 76 76 82 85 85 85 87 93 94 78 67 67 69 68 64 67 65 82 79 84 89 93 94 88 84 86 89 91 91 93 92 91 92 92 92 92 88 86 93 91
72 78 84 89 90 90 90 93 93 93 94 94 91 81 78 68 61 68 73 91 92 90 81 80 94 93 91 90 98 100 100 97 95 99 93 92 92 93 90 87 87 87 93
91 94 92 93 94 95 96 95 94 94 93 93 94 92 85 79 91 94 97 97 95 88 91 89 86 92 97 98 100 100 100 96 94 91 93 93 92 93 92 91 89 92 88
94 95 96 95 95 95 95 95 94 95 95 95 94 92 82 86 92 95 93 97 95 94 98 94 98 99 100 100 95 100 97 99 93 94 94 91 92 93 89 90 90 88 88
94 94 94 95 94 95 94 94 95 95 94 91 91 90 90 96 96 95 95 96 96 96 96 99 98 98 97 97 98 98 95 96 94 93 92 92 90 90 90 90 90 92 91
94 95 95 94 94 94 96 94 94 96 96 96 95 95 95 96 97 95 96 98 97 99 99 98 99 98 98 100 100 96 96 94 93 94 94 92 91 91 91 92 92 92 92
95 95 94 95 96 95 96 97 96 94 95 96 97 96 97 98 98 98 99 99 100 100 100 100 100 100 96 98 100 94 93 93 93 92 94 94 93 90 92 90 92 93 93
95 95 95 95 96 97 97 97 97 97 98 99 98 98 99 100 100 100 100 100 100 100 98 98 100 99 97 97 96 95 95 93 91 92 94 93 93 93 92 92 92 93 93
91 93 95 94 95 95 96 97 98 98 98 100 100 100 100 100 100 100 100 100 100 99 98 99 98 94 96 94 91 94 91 90 93 92 94 93 94 92 91 91 91 93 93

GFSGL_sfc_rhum_045.txt.gz
RH
67 69 70 71 72 78 82 80 90 97 97 98 98 99 99 99 99 97 96 95 90 95 95 94 96 94 96 92 93 91 90 88 94 85 70 65 68 70 64 73 88 94 92
70 72 77 76 78 83 88 90 95 95 98 98 98 99 98 98 97 95 95 94 92 96 96 97 95 88 91 90 92 90 92 89 90 89 79 73 69 73 74 76 65 69 81
70 74 81 82 84 83 80 86 90 89 95 96 96 96 94 96 96 94 92 95 96 95 95 95 92 88 92 93 91 93 88 77 86 91 88 89 92 91 87 84 82 84 67
70 75 80 83 83 81 86 84 88 93 93 91 96 95 96 95 94 95 95 97 96 95 93 89 87 87 87 90 89 91 88 93 95 96 94 92 93 92 93 88 83 83 85
72 76 78 80 80 89 92 93 94 96 95 96 98 98 97 96 95 95 94 95 94 95 92 87 85 86 94 93 90 95 94 98 98 97 95 93 96 96 95 94 95 92 87
71 79 81 93 97 98 98 99 99 99 99 98 98 98 98 97 100 96 94 94 93 94 95 90 90 94 91 88 86 84 88 93 93 97 96 95 92 95 95 88 88 86 78
84 89 92 97 98 98 98 98 99 98 97 98 98 97 98 97 97 97 96 93 95 96 94 90 86 80 80 77 78 75 74 71 79 89 93 91 91 87 90 88 87 88 88
97 98 98 98 98 97 96 97 97 95 97 98 98 96 96 97 98 98 96 94 94 93 91 88 80 84 78 76 70 72 70 70 68 66 79 83 83 81 89 89 92 85 79
98 98 98 98 97 95 95 93 92 92 93 95 93 93 93 99 97 96 94 94 86 80 73 74 74 76 73 67 71 72 76 77 68 68 64 65 67 67 70 85 82 86 86
95 91 90 90 91 93 96 95 96 95 97 95 98 98 98 99 95 95 94 92 86 81 69 68 73 71 66 63 81 90 92 89 84 83 82 75 70 74 70 82 77 87 82
87 85 83 83 88 92 94 92 94 96 97 98 95 92 88 88 90 87 82 84 82 77 69 72 78 66 65 71 75 87 81 79 81 84 81 80 81 83 79 73 75 81 88
83 85 86 85 85 87 92 95 94 97 97 96 94 92 86 82 80 78 73 71 70 78 79 84 80 68 72 74 73 63 64 86 96 87 85 82 82 79 77 74 70 74 77
88 91 92 91 94 94 95 97 98 97 97 96 92 93 89 81 78 74 71 69 71 80 79 72 70 74 77 77 62 62 81 85 91 92 89 85 80 79 74 76 75 73 74
92 93 89 88 85 83 83 90 94 97 96 92 90 89 85 79 83 86 81 85 80 76 79 78 84 85 80 82 74 69 73 78 84 87 88 85 82 81 82 81 86 83 84
80 81 83 78 75 73 75 77 82 86 92 93 94 88 94 93 82 76 78 83 88 84 92 91 85 85 80 76 79 74 79 74 82 85 89 88 86 83 84 80 80 84 90
79 80 80 73 70 66 68 73 78 81 83 84 83 85 84 74 66 66 70 64 64 76 87 92 97 97 92 78 83 80 80 82 80 82 88 89 90 91 90 86 85 88 91
77 75 75 72 73 77 78 79 87 79 76 75 74 74 75 75 68 63 64 62 62 72 93 90 97 97 96 79 80 81 85 82 78 88 94 93 93 92 92 90 88 87 88
76 80 77 79 79 81 82 85 84 87 95 96 88 82 76 77 76 82 84 77 88 82 89 93 96 94 83 77 77 80 83 87 91 93 96 95 97 95 94 91 88 92 89
77 83 88 92 93 94 93 94 94 96 96 96 96 96 96 93 92 92 92 96 95 93 89 91 94 86 83 81 94 96 97 97 98 100 99 98 99 96 94 89 89 89 89
95 96 96 95 96 96 96 95 95 95 96 96 96 95 94 94 96 97 97 98 96 93 93 86 83 86 92 91 98 98 100 100 100 99 98 100 99 95 94 92 91 93 88
95 95 95 94 93 93 94 95 95 95 95 95 96 96 95 95 96 97 96 97 96 94 96 90 94 96 96 96 93 99 100 100 98 96 97 95 94 95 90 91 91 89 87
94 94 93 93 92 94 94 93 94 94 94 94 95 95 95 96 95 95 95 96 97 95 94 95 92 91 95 98 100 100 100 100 100 97 96 94 92 91 92 92 91 91 89
92 93 92 92 93 94 95 94 95 96 95 96 95 94 94 97 97 95 96 98 96 97 96 95 99 99 98 100 100 100 99 96 95 96 96 94 93 92 93 94 92 92 90
92 94 92 93 95 94 96 96 96 94 95 97 98 98 99 99 99 99 100 100 100 100 100 100 99 99 97 98 99 98 95 96 95 94 98 95 94 91 93 92 91 90 92
94 94 94 95 97 97 96 96 97 98 98 99 99 99 100 99 99 100 100 100 100 100 97 98 100 99 98 98 98 97 97 99 96 94 95 94 95 94 94 93 92 90 91
90 90 93 94 96 97 97 98 100 99 100 100 100 100 100 100 100 100 100 100 100 100 100 99 98 95 96 97 94 97 99 94 94 93 95 95 95 94 93 93 91 92 92

GFSGL_sfc_rhum_048.txt.gz
RH
74 76 76 78 77 85 82 85 90 90 89 91 93 95 97 98 98 98 99 99 98 98 95 94 94 96 98 97 96 92 91 88 93 89 77 69 67 69 66 67 70 79 82
69 71 76 75 78 79 78 76 77 76 89 88 91 95 95 96 98 98 99 98 98 98 95 94 97 95 98 96 95 96 93 91 93 95 85 78 73 72 76 79 68 62 77
67 72 77 77 80 83 80 77 75 88 86 89 89 94 96 98 98 98 97 96 96 94 95 95 97 95 98 97 94 91 91 79 88 91 91 86 87 86 85 84 83 85 74
69 73 76 79 78 76 77 76 79 88 89 90 93 92 95 97 97 98 97 97 97 97 97 95 95 93 92 91 90 91 88 92 93 96 92 91 93 89 90 90 81 80 77
72 73 76 78 79 77 78 80 84 92 92 90 94 97 98 98 98 98 97 98 98 99 97 94 92 88 90 88 87 94 92 93 89 88 86 90 86 88 84 90 78 74 70
78 78 75 79 81 83 82 84 88 92 92 95 98 98 98 98 100 100 98 98 96 97 98 93 94 94 92 90 88 86 84 83 83 85 87 80 77 82 86 83 85 81 72
78 79 81 82 85 87 88 92 96 97 99 99 99 99 99 99 100 99 99 96 97 97 94 95 90 84 84 80 82 75 71 72 71 77 74 76 80 75 83 88 87 88 82
84 90 92 93 93 94 98 98 99 99 99 99 99 99 99 99 99 99 98 97 96 95 91 89 88 86 81 76 67 61 61 65 67 65 73 79 81 79 87 83 86 80 73
96 96 96 96 98 98 99 99 99 98 99 99 99 99 98 99 99 97 95 91 85 84 81 83 82 80 76 68 61 63 72 74 69 65 62 62 63 63 65 81 82 88 86
99 98 98 98 98 98 98 98 98 96 98 96 98 98 98 98 97 94 88 87 88 82 78 80 79 68 66 68 78 79 79 79 70 67 63 63 62 66 65 67 72 83 81
94 95 95 93 95 93 93 93 94 97 97 96 94 90 90 93 94 91 87 86 84 80 74 72 69 67 70 74 81 79 74 69 71 68 67 68 69 67 64 65 65 72 83
88 89 89 89 87 87 91 93 93 92 96 96 95 92 88 84 83 82 82 79 74 78 73 70 74 72 74 74 69 65 70 79 79 76 75 74 74 70 66 67 64 66 69
91 91 92 90 90 89 92 96 96 93 96 96 93 93 89 83 80 74 72 72 73 75 78 73 73 76 74 71 65 66 81 76 81 83 81 77 71 68 66 68 67 65 68
94 94 91 89 89 92 96 96 95 97 96 92 90 88 83 76 78 77 78 77 78 77 84 82 86 82 81 76 71 69 71 72 76 79 80 77 74 75 75 72 83 78 83
89 88 88 87 86 88 89 88 90 91 89 91 89 84 91 90 79 76 77 82 89 89 93 87 82 76 74 73 75 70 74 72 77 79 82 81 79 76 75 72 74 78 89
86 84 86 84 80 76 80 85 90 91 89 87 84 86 84 74 70 71 72 75 79 83 84 88 90 90 85 79 83 79 78 78 76 76 82 81 84 85 86 83 80 86 91
82 78 80 78 76 76 77 82 90 94 95 95 95 94 91 82 79 72 66 71 67 71 90 89 92 93 91 80 82 82 81 78 77 80 85 87 88 87 90 87 86 86 88
78 81 78 81 88 93 94 94 94 94 95 96 89 82 77 78 85 90 92 92 94 92 92 93 94 94 90 88 87 81 78 81 84 86 90 92 93 92 92 90 86 91 88
92 94 95 96 96 96 96 96 96 96 95 95 96 96 95 93 92 91 91 96 95 94 93 92 94 93 92 89 91 90 93 94 94 96 95 93 97 96 94 90 88 90 90
95 96 95 95 95 95 95 95 95 95 96 96 95 95 94 94 96 97 97 97 96 94 94 92 92 90 89 86 92 96 97 96 95 94 95 99 100 98 96 92 91 92 87
95 94 95 94 94 94 95 95 94 95 95 95 95 96 95 95 96 96 95 96 95 93 94 90 92 93 93 95 91 96 96 97 96 95 96 96 99 96 90 91 91 88 86
93 93 93 93 92 93 93 92 94 94 93 94 94 94 94 95 94 94 93 96 96 93 93 93 92 91 91 92 94 100 100 100 100 97 97 95 92 92 93 92 92 91 89
91 92 91 91 91 92 94 92 94 94 95 95 94 94 94 97 97 96 98 100 98 99 98 96 100 97 94 98 98 98 100 97 94 95 97 95 94 93 94 94 91 92 91
93 93 90 92 93 93 95 97 96 95 95 97 99 99 100 100 100 100 100 100 100 100 100 100 98 98 96 97 98 98 94 95 94 93 96 96 94 92 93 92 91 92 92
92 92 93 94 96 96 96 98 99 100 100 100 100 100 100 100 100 100 100 100 100 100 99 100 100 99 96 97 97 96 96 97 94 94 94 94 95 95 94 93 92 91 90
92 94 96 96 98 99 100 100 100 100 100 100 100 100 100 100 100 100 100 100 100 100 99 99 97 94 95 94 93 98 96 99 97 93 95 93 95 94 93 93 92 92 90

GFSGL_sfc_rhum_051.txt.gz
RH
72 74 74 74 73 73 74 72 70 70 70 70 69 71 73 74 78 85 84 85 98 96 93 98 94 92 96 96 93 89 90 88 91 83 73 74 66 61 61 59 58 56 52
70 72 78 76 74 77 77 73 73 73 74 72 71 70 70 73 77 89 91 97 98 98 97 98 97 97 96 95 95 95 91 84 88 92 76 73 74 69 69 64 54 47 53
64 70 75 77 80 78 75 73 71 71 72 69 72 75 73 79 82 88 89 97 98 94 91 94 95 97 98 97 95 93 93 88 90 88 83 79 74 73 63 59 60 56 47
61 66 70 73 72 73 72 71 72 68 69 69 74 75 78 80 84 90 91 90 90 88 88 93 94 95 95 96 96 95 91 90 89 86 85 82 80 64 61 58 51 43 39
60 61 65 67 66 65 70 71 72 72 70 69 73 75 76 81 93 94 95 96 92 94 95 96 94 93 95 92 89 90 88 89 86 87 83 80 67 62 54 45 46 39 41
63 64 60 64 64 69 67 70 72 73 72 76 77 79 89 95 100 100 98 96 92 97 98 98 97 97 96 95 92 88 78 81 83 82 72 64 56 51 44 48 50 47 40
66 63 63 66 68 71 69 67 69 73 74 82 87 91 97 98 100 100 100 98 98 98 97 96 89 86 85 81 85 81 79 73 70 62 56 50 49 47 54 55 51 51 46
68 68 68 70 70 70 73 75 78 83 90 97 99 99 99 99 100 100 100 98 98 96 94 90 89 86 79 78 69 62 56 55 56 46 50 51 52 50 54 50 52 54 48
66 69 70 73 73 77 85 98 99 99 99 99 99 99 98 99 99 99 95 93 92 93 88 85 82 85 87 74 63 61 60 64 69 66 63 60 59 60 58 53 56 54 62
65 71 77 81 94 97 98 98 99 98 98 96 98 98 99 98 98 95 90 90 92 91 88 87 82 85 91 76 67 59 62 58 55 51 46 44 48 47 60 49 45 62 55
94 94 94 92 97 96 95 94 94 95 94 96 96 95 95 96 96 93 90 86 85 84 80 78 83 84 80 76 70 63 63 52 67 52 48 49 50 50 46 46 48 53 62
93 94 94 94 94 93 93 92 91 92 95 96 96 94 91 90 91 89 87 84 82 81 72 72 82 83 80 70 63 75 73 67 64 62 59 54 56 52 47 48 50 49 48
93 95 96 94 90 90 92 94 95 92 94 96 93 94 89 81 81 82 81 79 76 74 75 76 79 75 71 68 71 75 71 65 68 68 63 57 52 50 49 55 54 50 51
94 94 92 94 95 94 90 90 93 95 95 93 89 86 83 77 77 74 75 75 78 75 78 74 76 73 70 68 64 63 60 61 63 65 65 60 58 60 62 59 66 62 63
87 87 87 87 89 92 92 92 92 88 83 84 84 80 89 86 76 72 72 78 82 85 80 72 69 66 64 63 64 61 64 61 64 68 73 70 65 62 62 58 60 61 71
80 80 83 82 82 81 86 93 94 90 88 86 85 87 90 88 92 93 92 88 81 76 75 79 83 81 72 66 70 69 75 81 79 81 80 71 71 70 70 68 66 69 72
76 73 76 76 77 79 80 80 87 96 95 95 95 94 91 92 80 72 72 72 69 71 81 87 91 92 89 82 80 79 80 78 78 75 73 73 74 72 75 72 70 69 70
90 93 89 89 91 93 94 94 93 91 91 92 94 89 92 92 92 91 88 87 88 87 84 84 87 88 82 75 74 76 74 76 73 71 74 76 79 77 78 73 69 74 69
94 95 96 96 96 94 91 92 90 88 88 90 90 91 92 92 92 90 84 84 82 78 75 75 81 80 78 77 84 83 82 80 81 82 77 76 81 78 77 72 71 74 76
94 96 95 93 93 93 93 92 89 88 88 87 85 85 80 76 86 89 88 88 85 80 80 77 77 77 78 75 81 82 81 78 76 74 78 81 82 80 80 77 77 78 70
92 92 92 91 91 92 92 92 89 87 84 83 87 90 86 78 84 84 82 86 83 80 83 77 79 80 79 79 72 78 77 79 76 76 77 77 83 82 75 76 77 73 70
87 88 88 89 85 85 82 80 81 81 80 82 85 87 83 83 80 80 81 86 85 80 77 78 77 74 74 76 77 83 81 82 81 78 80 78 78 78 79 79 79 79 75
79 82 81 80 81 83 84 80 84 85 84 84 78 78 78 83 83 78 83 87 81 83 81 78 81 79 74 77 78 77 82 80 78 80 82 81 79 80 81 82 78 80 78
82 83 79 83 85 83 87 89 86 82 82 85 87 88 88 89 88 88 89 88 84 84 84 84 81 80 78 80 79 76 73 77 78 78 81 84 82 78 81 80 78 80 81
83 86 86 86 88 88 88 86 86 87 87 88 90 90 86 85 84 87 87 86 86 85 83 86 86 81 79 83 84 83 81 87 83 86 83 82 84 84 84 82 83 81 81
81 81 83 83 85 84 85 87 89 88 90 91 90 90 88 84 82 87 86 85 84 83 84 81 81 82 82 76 73 80 85 86 85 85 87 84 85 84 84 84 84 84 82

GFSGL_sfc_rhum_054.txt.gz
RH
53 56 59 60 60 60 61 60 59 59 58 58 57 59 58 58 57 58 61 60 63 67 74 79 80 81 89 94 96 96 96 95 98 95 74 74 80 79 70 73 58 53 51
50 56 63 61 60 62 64 62 64 63 60 59 57 56 54 52 52 56 60 60 61 66 73 86 91 96 98 98 96 96 94 94 93 95 88 84 84 82 75 69 60 44 42
49 54 60 65 65 65 64 63 59 60 59 57 54 56 54 53 53 62 68 63 65 66 75 90 92 91 96 95 97 97 95 94 90 92 89 87 76 80 72 67 60 53 42
47 52 57 61 62 64 63 61 62 58 59 57 56 55 56 52 56 57 60 67 67 68 72 83 80 84 89 97 98 97 96 95 94 93 87 86 80 78 74 68 61 50 42
48 49 54 58 57 56 58 59 59 61 58 56 56 55 56 56 56 59 61 68 72 84 90 87 79 85 96 93 93 94 92 94 93 90 87 79 78 74 76 58 48 42 34
50 50 48 53 54 58 55 57 59 60 57 57 57 57 60 59 85 98 89 85 84 91 98 96 94 98 97 97 96 94 88 88 85 82 74 78 75 66 57 51 43 39 35
50 48 48 50 53 55 54 54 56 59 58 60 59 59 61 62 100 100 100 87 96 97 98 98 97 95 94 92 94 89 83 81 77 68 71 69 63 54 47 45 42 40 38
48 48 47 50 51 51 53 55 57 58 62 66 68 72 77 75 100 100 100 99 99 99 97 95 95 95 89 85 77 68 62 58 54 46 51 50 49 43 43 39 42 42 41
45 46 45 48 52 52 56 60 64 68 77 90 91 96 99 99 100 100 98 98 98 97 92 91 90 90 92 83 68 63 64 68 78 69 65 63 60 58 54 41 47 46 58
42 42 44 49 51 54 60 74 91 93 96 96 97 98 99 98 99 97 94 94 97 96 93 96 94 89 85 79 71 71 80 72 59 56 55 56 52 49 60 47 38 51 49
40 48 50 53 63 82 88 91 94 94 94 96 97 96 97 97 97 95 93 92 93 94 92 94 95 95 89 80 66 68 73 59 65 48 41 38 38 40 40 38 37 41 49
80 86 90 91 90 90 94 95 94 92 95 95 95 95 93 94 94 93 91 91 90 88 88 91 95 91 85 81 79 74 70 66 59 53 50 46 44 42 36 35 36 39 38
91 94 93 92 90 89 93 94 94 92 94 94 92 94 93 91 94 94 93 92 91 89 85 90 94 90 78 79 81 76 68 59 66 71 58 49 42 39 39 44 47 42 41
94 96 95 96 96 93 91 90 92 94 94 91 90 90 91 89 92 94 91 81 82 82 90 86 79 78 78 78 71 68 60 55 57 60 59 52 49 55 57 54 60 55 55
92 92 94 93 92 93 93 91 93 93 89 89 89 87 94 95 94 85 82 84 85 87 89 89 87 76 67 61 57 55 58 59 65 68 71 71 68 63 61 54 54 55 64
91 91 92 91 89 86 87 92 95 95 92 91 90 88 92 90 93 94 94 93 93 94 88 86 84 80 75 76 83 81 75 71 71 72 76 72 72 69 66 62 59 62 63
86 84 86 86 88 89 88 85 89 95 94 95 94 95 93 94 94 93 92 87 89 86 88 88 92 91 86 72 72 70 72 72 68 69 71 70 70 66 68 64 61 60 61
94 94 93 94 94 94 94 95 93 92 93 94 95 91 94 94 91 88 88 85 80 73 75 80 83 79 71 66 64 65 67 70 69 66 69 71 73 70 70 65 60 65 60
96 96 96 96 97 96 96 94 90 88 89 91 91 91 92 90 86 81 76 79 78 72 65 67 72 70 68 64 76 75 77 76 76 77 72 71 77 71 70 64 62 64 65
94 96 94 94 94 94 94 92 92 91 90 90 89 89 87 87 87 85 83 82 78 72 71 66 65 68 71 69 75 77 75 73 71 69 74 76 76 73 72 69 69 71 62
92 92 94 92 90 88 87 86 85 84 82 81 84 83 73 72 78 78 75 80 76 72 75 67 69 71 70 70 63 71 70 73 70 70 72 71 77 76 69 70 71 66 65
81 84 81 80 77 79 76 74 76 74 73 75 76 76 71 76 72 71 71 78 77 68 65 67 67 65 64 67 70 77 74 76 74 72 74 72 71 72 71 72 74 76 74
74 76 74 73 74 76 79 73 78 79 77 76 70 70 70 76 74 68 74 78 71 74 73 70 74 71 67 71 72 71 74 73 72 74 77 77 72 72 75 77 74 76 75
72 73 68 73 75 71 78 81 77 71 70 75 78 78 76 77 79 77 78 79 76 76 75 75 72 71 72 74 74 71 66 71 72 72 75 78 75 72 76 76 74 77 78
74 77 77 77 79 79 79 75 77 77 78 78 79 78 72 72 72 76 77 76 75 76 72 73 74 70 70 73 75 73 72 74 77 77 78 78 79 79 78 77 78 77 77
71 71 74 75 77 77 78 79 80 78 79 79 78 78 77 74 72 76 75 73 74 74 72 73 71 71 72 69 66 74 79 81 82 80 82 78 81 80 78 79 78 80 78

GFSGL_sfc_rhum_057.txt.gz
RH
49 58 66 68 71 68 66 61 58 58 55 52 51 55 55 55 57 59 60 60 61 61 62 63 64 64 69 81 88 90 93 94 98 91 92 86 91 94 87 84 74 73 70
42 51 60 63 63 67 67 63 63 60 56 53 50 49 50 51 53 56 59 55 60 62 61 64 66 67 76 84 88 92 93 93 96 96 91 94 92 90 81 82 67 57 61
40 46 56 59 60 62 63 62 60 60 59 56 52 54 52 54 54 55 56 57 59 59 61 64 65 74 81 87 93 96 93 96 97 99 99 95 88 84 83 79 76 72 58
40 44 51 57 57 58 59 60 61 59 59 58 57 55 56 54 52 52 51 54 56 60 65 68 70 73 84 88 90 94 94 97 98 98 97 95 87 87 82 81 82 73 66
42 42 47 55 55 55 58 59 59 61 57 55 58 58 58 56 52 56 53 57 64 69 68 64 65 71 88 89 88 89 94 98 97 98 96 95 93 92 88 80 79 73 64
44 45 43 49 52 56 56 59 61 61 58 58 58 59 61 52 67 78 71 62 66 71 76 72 73 97 100 100 97 97 91 96 98 96 95 96 90 82 75 77 71 74 61
41 44 43 46 50 54 54 53 56 60 59 59 60 60 61 59 80 90 92 65 69 74 77 81 97 99 99 99 99 95 94 93 92 92 92 86 83 76 70 72 68 62 53
36 40 42 45 47 49 52 53 57 58 61 62 61 61 62 60 87 97 100 81 80 88 93 98 99 99 98 97 93 90 87 87 85 79 88 74 66 61 57 53 55 48 46
31 36 39 42 44 46 50 55 58 60 62 64 64 65 75 86 100 100 100 99 99 99 98 98 96 96 96 90 87 92 95 96 86 78 73 67 63 60 56 49 49 51 66
25 32 36 38 41 46 50 56 60 62 71 87 95 97 99 99 100 100 99 98 98 98 98 97 96 95 91 85 82 82 87 89 79 69 60 55 50 55 54 45 42 53 52
24 26 36 39 42 47 51 55 82 87 93 96 96 97 97 97 98 97 96 96 96 96 96 97 98 95 93 94 93 94 95 94 86 63 57 54 48 40 43 47 42 44 52
57 53 70 72 74 80 88 92 92 94 96 97 97 97 97 96 96 95 94 94 92 92 95 95 96 94 95 96 95 95 88 80 74 66 54 46 46 46 40 40 43 44 40
79 85 88 88 88 89 93 96 96 95 97 97 96 96 96 95 95 96 94 93 92 92 92 93 94 94 94 95 90 75 72 70 71 74 69 66 62 53 50 50 49 46 47
94 95 93 94 93 92 91 93 95 96 96 93 93 93 94 92 93 93 94 93 93 93 95 95 96 96 94 88 81 85 78 67 68 83 84 74 65 65 69 65 71 64 67
92 91 92 92 93 93 95 95 96 95 91 91 92 90 94 94 96 95 92 94 95 95 95 95 94 91 88 79 71 72 72 70 78 82 81 77 70 66 66 62 63 62 71
93 92 93 93 92 89 89 92 95 94 95 94 94 91 96 96 96 95 96 96 96 97 86 84 88 90 90 87 86 83 74 73 69 67 73 72 73 74 72 69 64 67 72
95 91 91 93 92 91 90 87 91 96 96 97 96 96 95 95 94 94 94 95 96 93 91 93 95 94 91 79 73 70 75 74 64 71 72 73 73 70 70 67 65 66 66
96 95 92 94 95 96 96 95 94 94 94 95 96 94 94 94 94 94 95 90 90 90 89 89 91 88 72 70 69 69 70 69 72 66 68 72 74 74 75 70 64 70 66
97 97 97 96 97 96 95 94 93 93 93 94 92 92 92 90 90 91 89 92 89 88 78 73 74 72 70 67 77 77 76 74 72 74 71 72 77 69 72 68 67 71 74
95 96 96 95 95 94 92 91 90 91 92 92 92 91 88 80 90 91 90 88 80 74 71 64 62 64 68 65 70 73 71 70 68 67 73 75 78 76 74 72 72 75 69
95 94 92 89 89 86 85 85 85 86 88 90 91 85 73 78 80 79 76 77 73 68 70 62 64 68 67 67 61 70 68 71 69 68 70 70 76 74 71 74 73 66 66
89 86 84 86 82 80 76 74 77 80 80 81 77 74 70 74 68 68 70 77 75 67 64 68 67 64 65 67 69 75 72 73 72 71 73 71 69 71 72 72 75 74 71
77 76 75 73 73 76 80 74 78 78 74 73 68 69 69 75 74 69 74 79 72 75 72 70 73 71 68 72 71 70 73 72 72 74 76 75 72 73 74 75 75 80 79
67 72 64 68 72 68 75 77 73 67 69 74 77 76 75 76 78 75 78 77 74 75 74 75 70 68 69 72 73 70 65 71 72 72 75 80 76 71 75 76 74 76 81
70 73 73 74 76 76 76 73 75 75 75 77 78 76 71 71 71 75 76 73 72 74 70 71 72 67 67 70 71 69 75 82 76 77 78 77 78 79 78 77 79 78 81
68 68 72 73 75 76 76 77 77 76 77 77 77 77 75 71 71 74 72 70 73 72 69 70 68 67 68 66 65 80 76 78 79 77 79 79 82 80 79 82 78 78 79

GFSGL_sfc_rhum_060.txt.gz
RH
77 80 80 77 73 76 74 73 72 70 67 67 66 69 71 74 74 74 75 73 76 76 74 75 77 77 79 82 86 87 88 94 94 87 96 96 99 98 96 96 93 91 85
60 76 81 80 76 78 77 72 70 69 67 65 63 63 66 67 68 70 73 67 72 74 74 76 74 70 79 78 84 92 94 94 93 93 93 98 97 96 94 98 89 75 75
48 62 76 79 80 80 77 72 69 67 67 65 61 60 59 63 64 64 65 66 67 66 66 68 69 72 76 79 81 87 93 94 94 97 94 97 96 95 95 92 89 78 66
46 50 64 72 74 74 74 74 72 69 67 65 64 62 60 56 56 57 57 62 64 63 65 66 66 70 73 77 85 90 93 97 97 98 98 98 96 95 92 94 93 86 80
54 48 51 61 65 68 71 70 70 70 68 66 66 64 62 60 55 58 58 63 66 67 67 65 66 72 80 80 86 91 95 97 98 98 98 99 99 99 97 95 96 96 90
53 52 49 52 57 63 64 68 70 71 69 69 69 69 69 61 70 79 73 68 66 67 69 69 74 89 88 91 96 96 93 96 98 98 98 98 96 97 98 98 98 96 93
48 50 50 51 53 59 62 63 66 69 70 71 70 70 71 70 82 84 85 67 70 73 74 78 85 92 99 98 99 97 97 98 98 95 98 98 98 98 96 97 93 85 77
33 43 48 51 52 52 59 63 66 67 71 72 72 73 73 69 93 88 91 76 74 75 85 89 85 99 99 98 98 97 97 97 97 95 96 98 96 88 83 73 64 60 61
44 29 39 46 51 52 56 62 65 68 71 73 72 75 76 75 100 91 90 94 98 99 98 98 99 99 99 96 96 96 97 98 98 96 94 94 90 70 64 73 79 82 92
71 63 53 35 46 51 56 61 66 69 72 85 96 97 99 99 100 100 99 99 99 98 97 98 98 97 96 93 92 90 93 96 94 86 70 64 64 65 60 60 63 85 83
77 74 75 78 55 52 58 64 71 90 96 98 98 98 97 98 98 98 97 97 97 96 96 97 98 98 97 96 94 95 94 95 97 95 96 96 94 87 73 62 56 60 76
80 80 82 85 85 86 92 94 94 96 97 98 98 97 98 98 97 97 95 94 92 92 96 96 96 93 93 92 92 96 96 97 98 97 95 89 80 66 67 65 63 62 59
87 89 89 88 88 90 95 98 97 97 98 98 96 97 97 96 97 96 96 96 94 94 95 96 94 93 93 95 96 96 97 96 97 97 96 96 95 94 75 73 76 69 70
89 91 90 91 92 90 93 94 97 98 97 94 94 94 95 94 96 94 92 91 94 93 95 95 96 96 95 96 94 94 93 94 95 95 95 96 95 94 89 84 88 82 80
89 90 92 91 92 92 94 93 94 96 92 93 95 92 93 96 97 95 94 95 95 96 96 96 96 96 95 94 94 94 95 92 92 92 90 85 79 75 75 74 77 81 88
92 90 94 92 93 90 88 92 95 95 95 94 94 91 95 96 95 95 96 97 97 98 94 95 97 96 96 94 94 93 92 85 82 82 86 85 87 89 87 85 83 85 85
97 95 91 94 94 93 90 85 91 95 95 97 95 96 94 96 95 94 96 96 95 89 93 95 95 96 95 92 90 88 90 82 83 87 88 91 93 91 91 84 82 80 82
96 96 94 94 95 96 96 96 96 94 94 95 95 95 95 96 95 96 92 84 91 90 92 93 94 91 85 78 79 82 82 87 86 89 93 95 94 91 91 85 83 90 83
94 96 97 97 97 96 96 96 95 95 95 95 94 95 95 94 92 88 83 88 88 85 81 82 83 81 82 83 89 90 93 93 93 94 94 89 95 94 94 90 86 86 86
93 95 96 96 95 94 95 93 92 94 94 95 95 95 94 88 91 90 88 87 86 83 80 76 77 80 84 84 90 91 90 91 91 91 94 95 96 94 95 92 93 91 81
94 95 96 95 95 96 95 94 94 93 93 92 93 88 79 83 86 85 85 87 85 85 86 81 84 84 84 86 83 92 92 94 94 94 95 93 95 95 92 91 89 83 79
91 83 81 85 85 87 86 85 87 86 84 84 83 81 79 83 83 86 87 89 88 83 83 88 86 86 88 90 93 95 94 95 95 94 94 94 92 91 91 93 92 92 86
74 79 80 78 78 80 83 81 84 85 86 85 83 84 84 88 90 88 90 92 91 91 90 90 91 93 87 94 94 92 94 95 94 92 96 95 92 92 94 94 91 90 88
78 80 74 79 82 82 86 87 84 81 84 87 88 88 89 91 93 92 93 93 93 92 91 94 92 88 90 93 93 91 88 94 90 90 93 96 93 89 92 90 88 88 90
81 83 84 85 87 87 86 85 87 87 88 89 90 90 87 88 89 92 92 90 88 91 90 92 94 88 86 86 89 94 91 98 94 95 97 94 94 95 93 93 92 94 90
79 80 84 86 88 88 89 89 90 89 90 90 90 90 90 89 88 91 92 87 92 94 90 92 88 83 83 89 88 96 93 93 97 94 98 92 95 94 93 94 91 90 88

GFSGL_sfc_rhum_063.txt.gz
RH
81 79 82 82 80 77 80 77 74 70 65 64 73 80 81 80 72 76 78 77 83 79 80 83 83 78 82 84 92 84 85 86 88 78 93 95 96 96 98 98 96 96 94
81 81 84 81 80 82 80 76 76 75 71 67 64 72 76 75 75 73 75 75 84 84 81 82 82 79 88 86 87 87 86 83 86 84 82 98 98 98 96 98 96 90 94
81 85 88 85 79 79 78 77 70 76 76 73 70 66 66 69 71 77 76 76 77 80 78 83 79 82 85 86 88 87 88 90 89 92 86 98 97 97 99 98 97 95 85
71 83 86 86 81 80 76 74 77 74 78 75 73 72 70 67 67 65 66 75 77 76 76 77 78 79 81 81 84 88 86 91 94 95 92 98 98 97 94 97 99 94 91
68 68 81 84 82 81 80 76 76 77 75 72 74 72 71 68 63 70 69 70 72 72 73 72 72 74 79 77 76 82 86 90 91 92 96 100 99 100 98 96 97 96 95
70 66 62 74 81 82 82 82 81 79 77 76 73 73 74 66 73 79 71 68 66 70 74 74 74 85 84 86 88 87 82 90 92 95 97 98 95 96 97 98 99 99 99
62 60 64 61 68 76 77 79 80 81 80 79 77 77 73 72 86 87 82 63 68 72 74 75 78 79 89 82 100 99 99 98 99 93 94 96 100 98 97 99 99 98 98
75 74 75 79 68 61 70 74 76 77 80 80 79 78 78 75 93 95 94 79 72 71 76 78 79 84 94 98 99 98 98 97 98 95 97 99 98 94 93 92 92 90 88
77 77 75 78 80 82 69 71 70 72 75 78 79 80 80 80 98 93 94 86 84 98 98 99 99 99 100 98 98 97 98 98 96 94 95 94 91 92 99 93 97 96 98
78 78 78 77 82 86 88 80 69 71 75 79 96 98 99 100 100 100 99 98 99 99 98 99 98 98 98 94 93 91 94 97 95 95 96 96 96 97 95 96 98 97 97
75 76 77 79 84 86 92 96 81 89 99 99 98 99 98 99 99 100 100 98 98 98 98 98 98 97 95 93 92 92 95 95 97 95 95 95 96 96 94 91 86 87 88
77 78 81 82 82 83 94 97 98 98 98 98 98 98 98 98 98 97 97 95 93 94 97 97 98 95 93 92 92 94 95 95 94 95 95 96 96 95 95 94 94 93 88
81 83 83 81 81 84 91 96 97 98 99 98 98 97 97 97 97 95 96 97 95 95 94 96 96 93 92 94 95 95 96 97 96 95 95 95 95 96 94 91 88 75 69
84 85 84 85 84 86 86 89 95 97 97 96 96 96 96 94 95 92 91 91 92 93 94 94 94 95 96 96 95 94 94 95 95 95 94 94 92 90 87 81 84 82 77
84 86 87 85 86 84 90 93 91 96 95 94 96 94 94 95 98 95 94 94 94 95 94 95 96 94 95 95 94 93 93 93 93 94 94 91 85 79 77 73 72 77 92
89 91 94 93 92 87 82 88 95 95 94 95 96 94 97 96 97 96 97 97 97 96 93 95 96 96 95 94 93 93 93 93 89 84 86 84 86 87 86 85 84 89 94
92 91 88 89 90 93 95 92 92 90 91 96 96 96 96 97 96 94 93 94 95 92 94 95 95 95 95 93 91 88 92 84 79 86 88 90 88 87 88 88 88 84 86
92 94 94 95 94 93 94 96 96 95 95 95 94 93 94 95 94 93 94 90 93 92 93 94 94 94 93 88 83 86 84 87 88 87 92 93 95 92 92 89 88 97 89
93 95 95 96 96 95 95 95 95 95 94 95 94 94 95 92 91 91 87 92 93 93 91 88 87 86 87 85 89 89 90 91 94 95 95 92 96 92 95 94 94 95 94
94 96 95 95 95 95 94 94 93 94 93 94 94 95 94 87 92 94 93 92 92 91 89 87 85 86 90 90 94 96 94 96 94 94 98 97 98 97 98 98 98 98 93
94 93 92 93 95 95 94 94 93 92 93 93 94 89 83 87 92 92 90 92 93 92 92 90 91 93 94 94 90 94 95 97 95 96 96 95 100 97 97 97 98 93 87
89 83 82 85 86 92 90 89 90 89 88 89 90 90 88 91 91 91 92 95 95 92 90 93 93 92 94 96 94 98 98 98 98 98 99 99 98 99 98 98 99 100 97
83 84 84 86 84 85 89 88 91 91 92 91 89 89 90 93 92 92 95 96 93 92 92 92 93 93 94 94 93 98 97 99 100 100 100 100 100 100 100 100 99 99 99
87 90 86 88 90 90 94 95 94 92 93 95 96 95 96 95 97 96 96 97 96 96 97 97 95 95 94 96 99 98 96 99 99 98 99 100 100 98 100 99 98 100 98
90 92 93 95 96 96 95 94 95 96 96 96 96 97 95 96 96 98 97 98 97 99 98 97 97 98 96 99 96 95 96 99 98 98 99 100 100 100 100 100 100 95 98
89 90 94 94 96 96 97 97 98 99 99 99 99 98 98 99 98 97 99 98 98 96 96 98 95 95 98 98 96 97 100 100 98 97 100 100 100 100 100 100 98 99 96

GFSGL_sfc_rhum_066.txt.gz
RH
91 89 86 83 81 79 78 77 75 77 76 76 84 80 78 78 80 82 85 85 88 82 84 90 89 83 87 89 89 86 87 87 87 76 88 92 92 90 93 95 92 94 92
86 88 89 86 82 84 83 80 78 75 75 70 72 82 82 78 76 78 74 70 82 83 81 85 84 82 89 85 89 89 88 84 86 84 78 92 96 94 86 93 94 94 94
85 86 89 89 88 85 82 80 80 78 76 75 68 68 72 81 81 79 76 74 73 80 80 82 81 81 85 84 86 88 88 88 88 88 82 82 93 98 99 98 98 96 93
86 87 88 87 86 85 81 80 80 78 78 75 75 72 69 64 68 74 75 78 74 73 76 79 78 82 83 84 86 88 86 88 90 92 89 87 93 98 97 98 98 98 96
79 87 90 89 87 84 84 81 80 81 75 73 76 76 74 72 65 67 67 70 73 76 76 74 77 80 85 82 81 83 86 90 90 91 90 88 96 100 99 93 98 94 97
77 78 77 85 88 89 84 86 84 81 82 77 77 78 81 76 82 85 77 73 71 72 77 80 80 90 90 91 92 88 80 87 91 88 86 89 85 96 94 96 98 99 99
75 74 77 77 81 83 86 86 87 85 82 82 79 79 75 77 88 89 89 74 75 78 77 76 77 78 88 82 94 93 99 98 99 91 86 85 87 89 95 100 99 98 99
76 75 77 79 79 80 79 81 86 87 88 86 86 84 82 78 88 92 92 80 76 75 78 79 78 78 81 85 97 99 99 98 98 97 99 100 100 98 97 96 96 98 99
76 75 73 77 79 81 84 87 88 93 87 86 85 88 88 84 95 98 97 87 85 80 75 88 91 84 87 96 99 98 98 98 96 94 95 96 96 95 91 92 97 94 98
76 73 70 72 76 81 84 88 88 92 94 84 87 86 88 88 100 100 99 89 91 92 99 99 100 99 100 99 98 97 97 98 97 97 96 95 94 95 94 97 98 98 97
72 73 74 74 76 78 84 86 93 96 98 99 99 98 98 98 98 99 100 96 97 99 99 99 99 98 97 96 94 95 95 96 97 94 94 94 95 96 96 96 96 96 95
72 76 79 79 78 78 86 89 92 96 98 98 98 97 97 96 98 97 97 98 97 98 98 98 99 98 97 95 94 96 95 94 94 94 95 96 96 96 96 96 96 95 94
79 81 81 78 79 80 87 90 93 93 96 96 94 94 95 94 94 95 95 95 94 95 97 96 94 93 92 94 94 94 93 94 95 94 95 96 96 96 95 95 90 75 70
81 82 83 83 81 82 83 86 92 93 93 92 92 94 94 95 95 94 93 91 91 92 94 94 95 94 93 94 93 94 94 95 95 95 95 95 94 93 94 92 87 76 78
81 81 86 85 86 84 89 94 93 96 96 94 96 94 94 96 97 94 94 95 95 96 94 94 94 94 95 94 94 94 94 94 94 95 95 94 93 89 81 75 73 76 88
85 87 90 88 87 85 85 82 85 94 96 96 96 95 97 97 96 95 94 93 95 93 92 94 95 95 95 94 93 93 93 93 94 93 93 90 88 86 84 86 81 87 92
88 92 90 90 90 90 89 89 93 90 85 92 93 94 94 95 95 94 93 93 92 87 93 94 95 95 95 94 93 93 94 92 86 89 88 90 90 88 87 81 82 79 83
93 93 94 95 95 94 94 93 93 95 95 95 93 93 93 92 92 93 93 84 91 91 94 94 95 95 93 91 89 89 90 91 90 89 92 93 92 90 90 88 89 94 89
93 95 96 95 94 94 93 92 92 93 94 95 94 92 94 92 92 93 90 94 94 93 91 91 92 91 90 89 94 93 94 94 94 94 91 88 96 90 93 92 89 91 91
94 94 94 94 94 93 91 91 91 92 92 93 93 95 93 88 93 94 94 93 92 90 90 89 89 90 91 91 95 95 95 95 94 91 96 97 100 95 96 93 95 96 92
95 92 92 94 94 92 92 91 89 90 91 92 94 92 87 88 92 93 92 94 93 92 94 90 93 94 93 94 91 95 93 94 94 95 97 96 99 97 95 97 98 95 90
94 92 90 91 92 93 91 90 91 90 88 90 92 89 88 92 92 92 92 94 95 92 90 90 93 94 93 94 95 96 96 98 98 98 98 99 99 99 100 100 100 100 98
94 93 91 92 91 93 94 93 95 95 95 95 91 91 91 95 96 95 97 97 96 97 96 93 96 96 93 98 97 97 98 100 100 99 100 100 100 100 100 100 100 100 100
94 95 92 94 96 95 96 97 96 95 96 97 96 97 97 98 98 97 98 99 99 99 99 98 95 92 96 100 100 99 94 99 99 99 100 100 100 99 100 100 100 100 100
95 96 96 96 96 98 98 97 98 99 98 99 98 98 99 96 97 99 99 99 98 100 99 98 99 100 100 99 98 96 99 100 100 100 100 100 100 100 100 100 100 99 100
95 96 97 97 98 98 99 100 100 100 100 100 100 100 100 100 100 100 100 99 99 98 98 100 98 100 100 100 97 100 100 98 98 99 100 100 100 100 100 100 100 100 100

GFSGL_sfc_rhum_069.txt.gz
RH
85 82 87 89 92 93 88 89 92 92 90 89 84 79 78 79 78 77 75 75 81 77 84 89 84 78 82 87 92 90 90 90 88 76 87 90 93 90 89 93 89 91 86
88 87 90 94 89 88 88 84 85 86 89 83 88 88 79 73 72 78 81 80 88 88 83 87 86 80 90 85 91 91 91 86 89 86 78 87 93 86 86 92 90 92 89
93 90 90 96 95 93 88 82 79 77 80 83 78 80 81 83 79 76 74 72 76 85 86 88 85 87 89 86 88 89 88 88 89 91 85 80 85 96 95 96 95 95 95
85 90 95 94 94 93 92 92 88 82 77 75 77 75 74 74 77 80 80 81 77 74 74 76 77 82 83 82 85 85 85 87 88 92 90 88 86 92 98 93 92 98 94
82 82 86 89 89 89 89 89 87 88 84 79 77 76 73 71 68 70 73 77 78 78 76 74 74 77 83 80 76 80 85 89 90 89 90 88 86 95 98 89 97 90 90
77 78 76 77 82 88 90 89 89 87 86 84 85 83 80 73 79 85 77 70 71 76 78 77 76 85 85 90 92 86 75 86 91 89 86 86 84 85 90 94 92 96 98
76 75 77 77 76 79 79 80 90 90 87 87 86 84 83 82 89 90 91 74 73 75 76 75 75 75 87 83 94 96 95 92 91 80 85 86 87 85 86 94 95 91 94
75 73 73 75 75 76 78 80 84 89 93 92 90 86 86 80 91 96 99 90 85 79 78 80 80 79 79 85 89 92 94 94 99 98 94 93 96 97 97 97 98 99 99
76 74 72 74 74 75 79 82 84 89 92 93 91 92 90 89 94 96 100 92 93 90 85 83 84 85 85 93 88 91 100 100 97 97 97 97 97 96 97 97 99 98 98
78 76 74 74 76 78 80 84 85 88 93 94 95 97 95 95 95 96 98 96 94 93 89 87 99 99 100 100 91 92 99 99 98 96 95 95 95 96 94 96 97 96 96
75 75 75 78 77 78 80 82 86 90 95 97 96 93 92 94 93 96 98 99 98 98 100 99 99 98 96 96 97 99 98 96 97 95 94 93 93 93 93 93 95 94 94
76 78 79 80 77 77 83 87 86 88 92 92 91 91 92 92 93 93 95 97 95 96 98 98 98 92 92 93 95 97 96 93 94 94 93 94 94 94 95 95 96 95 94
77 79 78 78 75 75 79 84 87 86 90 91 90 92 92 91 93 92 90 90 93 94 94 95 94 91 91 92 92 93 94 94 94 95 95 96 96 96 96 94 95 94 94
78 83 80 76 77 79 78 79 83 87 89 88 90 92 92 91 92 92 92 92 91 92 93 94 95 94 93 94 92 92 94 95 94 95 95 96 95 95 94 94 94 94 91
83 83 85 84 87 84 90 90 89 92 87 91 92 92 92 94 97 95 95 95 96 96 94 94 94 94 94 95 94 94 94 94 94 95 94 95 94 92 91 86 84 86 90
84 88 92 90 88 86 85 89 82 84 84 84 84 86 94 91 91 93 93 93 93 92 92 94 95 95 94 94 94 94 94 94 94 93 93 91 91 89 88 86 82 84 84
92 88 91 92 91 91 92 92 95 85 81 83 84 85 85 86 88 90 92 92 92 86 93 94 95 95 95 94 93 92 93 92 87 90 92 92 91 90 88 84 83 78 82
96 95 96 97 96 95 96 96 94 95 96 95 88 88 87 87 86 87 89 83 90 90 92 93 94 94 93 91 88 89 90 90 90 89 92 93 94 91 89 86 84 93 85
95 96 97 96 96 96 94 94 93 93 94 94 90 88 91 86 87 87 84 91 93 93 91 91 92 91 91 89 94 94 93 94 93 93 94 91 97 91 92 89 87 89 90
95 94 97 96 95 94 94 94 93 93 93 94 95 96 87 84 92 93 93 93 92 91 90 89 89 90 92 92 95 94 94 93 92 89 96 97 97 93 95 93 95 97 90
97 95 96 94 95 95 95 95 95 94 94 95 96 95 90 89 94 94 93 94 94 92 94 90 93 94 93 93 89 93 92 93 91 91 94 94 99 98 97 98 96 94 89
96 95 94 95 94 96 95 94 96 95 94 95 95 92 94 94 93 94 96 97 95 91 90 92 92 93 94 93 94 96 97 98 97 96 96 98 98 98 98 99 100 100 96
95 96 94 95 94 97 96 96 97 97 98 98 96 95 95 98 98 98 99 100 97 98 96 94 96 97 97 98 97 96 97 99 100 99 100 100 99 100 100 100 100 100 100
95 96 94 96 97 97 99 100 100 99 98 100 100 100 100 100 100 100 100 100 100 100 100 100 99 99 99 100 100 99 96 99 99 99 100 100 100 99 100 100 100 100 100
96 97 97 98 100 100 100 100 100 100 100 100 100 100 100 99 99 100 100 100 100 100 100 100 100 100 100 99 98 99 100 100 100 100 100 100 100 100 100 100 100 100 100
96 97 99 99 100 100 100 100 100 100 100 100 100 100 100 100 100 100 100 100 100 100 100 100 100 100 100 100 100 100 100 100 100 100 100 100 100 100 100 100 100 100 100

GFSGL_sfc_rhum_072.txt.gz
RH
85 85 96 97 96 96 96 96 90 90 87 85 83 86 88 90 91 94 89 88 92 90 90 90 86 80 78 80 89 85 85 84 82 69 87 87 91 87 87 89 86 86 81
88 87 86 92 96 97 96 94 95 91 92 91 86 85 83 83 84 87 87 82 86 87 86 85 80 74 79 77 85 88 87 84 88 84 73 79 91 84 80 84 82 84 82
87 89 90 93 94 97 96 94 91 92 92 92 90 91 86 82 82 83 81 82 81 80 79 78 80 80 84 84 87 88 88 87 89 91 84 78 79 94 91 89 85 87 89
87 90 91 91 93 91 90 92 92 89 86 84 82 82 82 84 86 83 80 82 80 79 80 78 76 76 76 75 81 83 84 86 87 93 91 87 81 79 94 88 88 94 87
80 80 87 88 92 91 92 92 90 89 85 81 83 85 81 78 76 81 82 84 85 82 79 76 76 78 84 82 74 80 84 88 88 85 83 84 86 85 92 83 93 88 84
76 78 76 78 80 85 87 91 94 92 90 88 86 82 84 77 85 87 83 79 78 80 82 80 79 86 84 87 90 85 70 76 86 84 80 82 79 78 78 87 90 89 94
75 74 76 75 74 76 77 78 84 90 92 93 93 91 89 85 97 94 92 79 76 75 75 75 75 74 85 79 86 94 94 92 84 72 78 81 82 78 78 82 86 90 89
74 74 74 75 76 77 80 81 84 88 91 93 92 92 92 90 95 96 99 93 86 81 80 80 80 80 77 80 83 87 89 91 91 91 88 86 96 98 98 94 94 96 97
76 76 75 77 78 78 82 84 84 87 90 94 94 93 90 88 92 94 94 94 97 93 87 86 89 87 89 91 89 88 91 100 97 96 95 94 93 93 96 99 100 100 98
79 76 78 76 76 80 81 84 84 87 89 89 87 88 88 90 91 93 94 93 98 98 95 98 98 98 96 97 99 95 96 100 96 95 94 95 93 93 92 96 97 98 98
73 74 77 75 78 79 82 82 84 85 85 90 89 89 88 90 89 90 92 95 99 96 95 96 95 94 94 96 95 99 99 96 96 94 95 94 94 94 94 94 95 94 94
77 78 77 79 72 73 80 83 86 85 88 88 89 89 89 89 85 86 88 89 87 91 95 94 94 90 90 90 92 93 93 94 94 94 93 95 95 95 95 94 95 95 94
79 77 76 76 75 76 81 84 82 84 86 88 88 91 91 89 91 86 85 85 87 92 93 90 88 87 86 91 90 89 91 94 95 94 95 96 96 96 96 95 95 94 94
82 81 79 78 78 78 78 81 85 86 87 87 84 88 87 86 90 91 90 90 87 89 90 93 94 93 92 92 91 93 94 94 94 94 95 96 95 93 94 94 93 90 86
82 83 87 85 86 85 90 90 88 94 87 89 94 93 94 95 96 86 90 94 94 92 87 88 90 91 92 93 93 93 94 94 94 95 95 94 92 88 87 82 80 81 87
87 89 94 92 91 87 83 89 83 86 85 86 85 87 95 88 83 85 86 87 83 79 86 91 94 94 94 93 93 94 93 93 92 89 89 86 89 88 86 84 80 82 83
95 92 92 92 92 93 94 93 96 88 81 82 83 84 85 87 82 83 83 81 79 79 91 93 94 94 93 91 90 90 92 88 82 88 90 90 86 84 85 80 80 75 76
96 95 97 97 97 97 98 98 97 97 97 96 88 88 84 85 84 82 77 78 88 86 89 92 94 93 90 87 85 85 85 87 88 85 88 91 91 86 84 80 77 85 73
97 98 98 98 98 98 98 97 96 95 95 96 93 92 89 79 82 84 84 92 94 94 90 90 92 90 89 87 93 92 93 93 92 93 92 89 95 84 84 82 79 83 80
98 94 97 98 98 97 96 95 95 95 95 96 96 98 91 88 94 95 94 95 95 94 93 90 90 90 92 88 94 92 91 91 90 87 94 95 95 88 88 86 86 84 80
99 98 96 96 97 97 97 97 96 96 96 96 98 98 94 92 97 97 96 96 97 96 97 92 95 95 94 93 88 92 90 90 88 87 88 89 95 91 86 86 88 84 81
98 97 95 96 95 97 96 94 96 95 94 95 96 93 95 96 96 96 96 100 99 95 92 95 95 95 95 94 94 97 96 97 95 95 94 94 92 92 91 91 93 93 87
95 96 94 94 94 97 97 96 98 98 98 98 96 95 95 100 100 99 100 100 98 99 98 97 99 98 97 98 96 94 95 98 98 98 98 98 95 96 97 96 94 93 94
95 97 94 97 98 97 99 100 100 100 99 100 100 100 100 100 100 100 100 100 100 100 100 100 99 99 97 99 99 98 95 98 96 96 99 98 96 95 96 94 94 97 96
97 98 99 98 100 100 100 100 100 100 100 100 100 100 100 99 100 100 100 100 100 100 100 100 100 100 100 100 100 99 99 100 98 100 98 97 98 98 97 95 98 94 96
97 97 99 100 100 100 100 100 100 100 100 100 100 100 100 100 100 100 100 100 100 100 100 100 99 100 100 99 98 100 100 100 99 100 99 95 98 97 98 99 98 96 96

GFSGL_sfc_rhum_078.txt.gz
RH
78 78 66 63 69 74 73 74 75 80 82 85 79 86 91 95 93 93 90 86 88 85 85 87 82 82 88 87 87 81 74 77 82 66 60 49 54 52 46 48 52 53 50
77 74 72 70 67 71 73 76 79 79 81 80 81 83 87 92 94 95 94 93 93 87 84 86 84 84 90 89 93 92 90 84 88 85 70 67 65 59 54 57 48 41 48
73 74 76 79 81 76 69 67 70 74 78 79 76 81 83 85 86 87 83 82 83 84 85 82 81 79 80 80 83 83 80 78 82 87 77 58 53 51 53 52 53 55 46
82 86 91 86 82 81 77 72 69 66 70 74 74 73 73 73 74 75 71 72 79 79 74 78 77 74 73 71 70 73 69 74 71 75 65 60 55 52 52 54 57 53 52
79 79 85 84 85 87 90 90 89 82 73 64 67 68 71 73 79 84 73 76 80 75 74 72 70 72 81 79 67 70 73 72 68 69 73 64 62 61 62 56 60 56 56
72 74 73 75 78 82 84 88 90 90 91 89 91 88 86 77 94 94 90 79 81 80 79 76 74 84 83 90 89 88 80 73 77 77 74 77 73 64 60 62 63 69 73
67 66 66 67 69 73 76 80 86 91 88 89 89 88 88 87 92 91 93 84 87 92 93 93 91 88 96 90 95 96 94 94 93 80 82 81 83 80 86 81 79 78 76
56 59 64 67 65 64 68 75 82 83 86 85 84 83 83 81 88 89 93 82 84 92 86 88 90 90 89 94 90 94 97 98 96 93 98 98 98 95 96 96 99 100 99
64 64 62 64 66 66 73 76 74 73 75 77 76 77 77 80 86 88 82 79 87 85 82 84 84 86 89 92 92 98 99 98 96 92 92 92 92 93 94 96 100 100 100
64 59 61 66 64 70 71 72 69 67 68 67 69 71 80 72 86 85 79 81 87 84 82 81 84 83 86 89 90 96 97 98 95 94 93 92 91 92 90 94 96 98 100
60 64 68 62 67 70 68 66 66 68 69 73 72 72 71 80 78 83 81 74 81 82 84 86 87 83 84 84 86 91 95 92 92 91 91 90 90 91 91 91 93 92 94
58 61 65 67 61 63 68 68 67 67 72 72 74 76 76 77 81 83 82 81 78 81 89 86 89 82 83 83 85 82 82 84 89 91 92 93 94 91 90 92 90 88 86
61 62 61 62 62 59 61 62 62 63 68 71 72 79 80 76 77 80 80 80 81 88 85 84 78 77 78 83 80 78 84 90 93 93 90 90 89 87 88 89 86 78 68
59 61 63 62 61 60 60 64 69 72 73 74 78 81 81 82 84 83 81 80 82 80 83 85 83 81 77 81 82 83 83 84 85 88 87 83 79 75 72 67 68 63 54
59 61 63 64 68 73 78 76 76 87 82 82 84 84 88 91 91 83 83 89 88 85 84 88 87 86 85 84 82 80 78 77 78 78 76 73 66 59 55 51 50 51 57
65 66 69 66 64 62 66 76 81 82 82 80 81 86 87 83 80 79 77 75 73 73 84 86 86 83 78 73 72 70 68 66 64 63 67 62 62 61 59 60 56 56 56
81 73 69 70 68 70 71 71 81 84 80 81 80 81 81 81 77 75 72 71 70 69 82 80 82 79 72 62 61 59 63 61 58 63 66 67 67 63 62 58 59 55 55
90 84 85 82 84 86 87 87 86 87 89 88 80 79 77 77 76 72 65 61 70 66 67 71 73 69 60 55 54 57 61 64 65 62 69 71 72 65 66 58 56 64 53
90 88 87 87 86 83 82 80 78 78 78 77 74 70 71 66 69 70 66 72 70 65 58 57 63 60 59 57 72 72 75 75 74 75 72 69 77 64 64 60 59 62 60
82 80 77 78 79 77 74 70 68 68 69 70 72 73 60 61 76 78 79 78 72 64 61 56 57 61 66 64 73 76 71 72 70 66 75 77 78 68 66 65 66 65 54
74 76 73 71 70 68 68 66 63 64 64 64 70 80 72 60 68 69 67 74 70 65 70 60 67 70 69 69 62 71 70 73 70 70 70 69 76 72 64 64 63 58 53
65 64 63 65 62 66 59 58 62 60 59 61 63 71 67 70 66 65 68 77 76 66 62 67 66 64 67 68 70 77 74 77 76 75 74 71 68 67 67 66 67 68 62
62 67 62 60 62 67 68 60 67 70 69 70 65 66 67 75 74 68 74 79 72 75 73 70 75 72 70 74 73 72 74 75 75 76 78 76 68 71 71 70 66 68 69
66 71 61 68 72 66 74 78 76 72 68 74 78 77 76 77 80 78 80 80 78 78 78 77 73 74 72 75 75 69 68 75 73 71 76 77 72 67 71 67 66 68 70
72 75 75 74 77 78 78 74 76 78 80 81 81 78 71 73 73 77 78 77 76 77 69 75 76 70 64 73 75 74 80 80 77 86 76 72 72 76 73 71 73 68 68
68 68 71 73 75 76 77 80 80 78 77 79 79 79 78 75 72 77 76 74 74 73 73 73 71 71 74 66 51 76 81 80 80 82 82 72 74 73 73 73 69 73 68

GFSGL_sfc_rhum_081.txt.gz
RH
69 58 65 69 63 66 69 67 67 72 75 81 84 92 96 95 93 90 85 88 88 86 84 84 83 80 81 79 85 79 74 70 76 56 51 52 62 60 54 58 53 55 56
67 67 70 68 68 67 68 63 65 69 74 81 82 81 91 94 94 95 94 88 85 82 87 86 85 75 80 75 81 84 81 81 86 83 72 70 68 65 64 66 54 44 46
75 76 74 73 73 71 71 70 71 72 79 80 83 81 79 84 90 91 90 89 86 87 85 87 82 81 81 82 83 84 84 78 85 87 76 66 64 60 63 62 58 57 46
83 86 87 80 70 67 67 71 79 77 78 80 78 80 80 80 81 87 90 92 90 87 82 79 73 68 72 82 82 78 69 71 68 70 69 67 66 62 64 64 64 58 55
84 85 89 88 87 88 90 85 83 86 87 83 82 87 81 78 79 84 81 89 87 83 74 80 80 82 92 87 74 73 74 80 82 81 80 74 72 72 69 61 65 60 59
80 83 81 82 84 88 90 92 90 89 87 86 89 86 85 78 93 92 87 76 76 84 91 89 87 98 92 95 97 97 95 87 82 84 83 83 75 71 68 71 72 76 78
78 74 74 77 80 83 85 86 90 91 89 90 89 85 86 86 92 91 93 80 88 89 88 88 84 81 88 84 88 95 98 97 98 97 97 97 98 96 96 96 94 96 96
69 72 70 70 73 78 81 83 85 86 88 88 88 85 85 83 90 92 95 90 88 84 84 85 86 86 86 91 89 94 95 94 95 88 96 97 97 95 95 94 97 99 100
74 67 61 66 68 68 73 76 74 75 77 77 77 78 78 83 86 88 86 81 81 81 78 82 77 77 86 90 81 96 96 97 92 89 90 89 88 87 88 88 95 97 100
70 66 65 68 68 72 73 74 68 66 66 66 69 72 78 78 84 85 77 78 83 82 80 80 84 82 86 87 87 90 95 97 93 92 92 91 88 90 87 94 94 96 96
66 64 64 66 71 70 69 68 66 66 66 70 70 69 72 78 81 83 83 72 78 81 82 86 86 81 80 83 84 88 92 89 88 89 89 89 90 90 89 89 90 87 89
71 68 69 71 65 61 68 74 72 64 68 71 77 79 79 76 81 82 81 80 78 83 90 87 87 79 79 81 85 84 84 89 88 87 86 88 88 88 89 86 84 80 77
59 67 73 73 73 74 78 78 74 71 79 81 82 82 84 85 86 83 80 81 80 88 87 82 78 77 77 82 76 77 84 89 90 91 92 92 89 84 92 90 99 78 63
58 60 60 60 61 59 62 72 82 81 80 84 84 84 83 83 84 87 85 83 87 87 88 88 85 84 80 78 82 82 85 83 86 88 87 82 80 70 65 63 62 56 53
59 60 64 66 68 75 83 79 77 88 87 84 84 85 88 91 90 82 83 87 87 87 94 90 84 84 80 80 77 76 72 72 72 73 72 68 63 57 54 51 50 51 57
65 67 68 65 64 62 65 75 78 80 78 78 81 86 86 80 75 74 73 71 71 73 79 82 83 80 75 70 69 67 66 64 62 61 64 61 62 61 58 57 55 56 55
78 71 72 74 72 76 78 73 82 84 76 75 76 77 76 75 72 69 66 64 64 67 75 76 78 76 69 59 59 59 63 61 57 62 65 67 66 62 62 57 58 57 55
86 84 84 84 84 85 87 87 88 91 90 90 76 70 68 68 67 64 60 56 66 62 64 68 70 66 58 55 55 58 61 65 65 62 68 70 72 65 65 60 57 63 58
84 85 85 85 83 81 79 78 76 76 75 75 79 68 65 62 63 64 62 69 67 62 56 56 61 59 58 57 71 71 73 72 72 73 71 69 76 65 64 60 60 67 62
78 74 73 74 74 72 70 67 66 66 67 69 71 70 60 59 73 76 76 76 70 62 59 55 57 60 65 63 71 74 70 71 70 67 73 75 76 69 66 64 65 64 54
70 69 66 66 65 64 65 63 60 62 61 62 68 76 73 59 66 67 66 73 69 63 68 59 65 69 68 68 63 70 69 72 70 70 71 69 75 71 64 64 63 59 54
59 57 57 60 58 63 56 56 60 58 57 59 62 69 64 68 64 63 66 75 74 65 62 67 66 64 66 68 70 76 72 75 75 74 75 72 68 68 67 66 66 67 62
58 63 56 56 58 58 65 57 64 66 66 67 62 64 65 73 72 67 72 78 70 74 72 70 74 71 70 73 71 70 73 76 76 74 77 76 70 70 72 70 64 65 67
61 65 55 62 70 62 71 75 73 69 64 70 74 73 72 73 76 73 76 77 74 75 75 75 70 70 70 75 76 70 72 76 74 73 78 77 71 68 72 68 66 68 68
68 69 69 69 74 74 73 70 71 72 72 73 75 74 67 69 69 73 74 73 72 73 68 70 72 68 68 70 69 70 81 77 77 77 76 75 71 72 71 69 69 68 68
64 64 67 69 71 71 72 74 73 73 73 74 74 74 73 71 68 73 71 68 70 70 67 69 67 65 66 66 74 76 75 76 78 78 80 77 75 72 72 74 72 71 70

GFSGL_sfc_rhum_084.txt.gz
RH
80 71 74 74 77 79 79 80 80 84 86 91 93 95 96 97 97 98 98 98 97 96 93 92 93 92 94 94 90 87 84 80 88 73 62 62 67 75 64 69 74 74 73
74 77 83 80 80 82 80 79 83 84 86 89 92 94 94 95 96 96 94 92 93 96 95 96 94 91 95 93 93 89 83 74 77 76 75 76 75 69 72 76 65 54 56
80 81 82 82 82 82 78 78 77 81 88 90 90 92 93 95 95 95 92 94 92 86 86 89 88 92 89 88 89 81 82 81 84 86 76 64 65 68 69 68 68 68 60
88 89 94 94 90 91 88 83 84 83 87 88 89 88 90 86 86 89 92 94 93 89 88 89 88 86 85 85 79 83 81 81 83 85 83 81 76 68 68 71 75 71 71
90 91 94 92 90 91 92 90 89 88 85 82 83 83 82 81 83 87 84 94 97 94 93 91 93 95 96 97 88 93 92 89 87 86 85 81 80 84 91 90 93 94 91
85 89 88 88 90 91 90 90 90 90 89 88 88 88 88 82 94 94 89 89 85 86 90 91 81 90 88 92 99 98 95 95 97 98 95 98 97 96 91 92 95 98 99
86 85 87 88 88 88 85 86 89 91 89 89 89 87 90 90 95 96 90 82 85 87 89 87 80 79 86 83 96 94 94 94 96 95 96 97 94 96 96 94 94 96 97
83 83 83 85 87 86 87 89 89 89 90 89 87 85 88 87 95 93 90 86 87 85 86 86 86 87 90 94 93 93 95 94 95 90 96 98 97 94 94 93 98 98 100
94 88 81 81 84 85 86 87 88 88 90 90 87 86 88 90 92 93 84 84 86 87 84 85 84 87 89 90 90 94 95 98 90 85 84 84 84 83 86 88 96 98 100
91 94 82 82 80 80 80 79 77 75 80 82 81 82 84 86 89 85 79 81 86 87 86 86 85 84 84 85 88 89 94 98 94 93 93 92 88 86 82 92 95 96 98
94 92 96 91 88 83 76 73 73 76 77 81 80 81 82 84 85 84 82 80 86 87 88 91 87 78 80 84 86 92 94 94 94 93 90 90 90 92 93 94 94 95 96
90 94 98 93 89 96 85 82 79 80 84 86 90 93 92 86 82 82 82 81 81 87 94 94 88 79 78 79 83 83 86 88 90 91 92 94 94 96 96 96 93 92 94
100 99 98 96 91 85 87 89 89 86 86 88 88 91 92 90 95 86 82 82 83 90 90 82 76 75 77 81 77 76 86 90 92 93 94 96 95 94 91 91 93 87 86
69 72 74 79 82 81 81 84 87 93 93 94 94 94 94 92 92 94 93 93 91 92 91 91 89 87 83 86 87 84 90 89 90 92 94 95 93 94 92 92 92 91 89
68 71 74 75 78 82 87 86 86 92 91 90 93 92 93 95 92 81 85 92 94 92 89 89 89 89 90 91 89 85 86 88 90 93 92 94 93 82 85 81 78 84 92
75 79 78 74 74 74 78 86 77 79 79 79 81 85 89 78 72 70 71 72 72 79 88 90 91 92 90 89 88 89 86 85 87 85 88 84 89 88 85 84 76 82 91
89 82 82 83 86 92 82 83 92 82 71 70 72 73 72 70 69 67 63 64 66 74 87 90 94 92 90 83 82 85 87 86 80 89 91 91 89 90 87 82 82 75 78
91 90 93 93 92 92 93 95 96 95 94 95 74 72 67 67 66 65 60 64 80 75 81 86 90 90 85 81 81 85 89 90 91 91 94 93 93 91 93 86 85 92 84
94 94 92 92 91 89 89 87 87 87 89 94 96 87 82 63 65 67 68 86 88 86 81 81 88 86 85 86 95 94 93 94 93 94 93 91 95 93 92 92 90 85 86
84 81 82 85 85 85 86 85 82 82 83 85 87 90 83 82 89 89 88 90 88 84 86 79 80 86 91 88 94 94 92 92 91 88 95 95 95 94 93 93 93 91 84
82 80 79 78 79 80 82 81 79 80 79 79 86 92 88 82 88 88 86 89 88 87 92 85 91 91 88 90 85 92 92 93 93 92 91 90 95 95 93 92 93 87 77
74 70 69 73 73 79 74 72 78 78 75 78 83 84 83 88 87 85 88 94 94 87 86 91 88 87 91 92 93 95 94 95 94 94 95 92 92 94 92 90 93 93 89
72 77 72 71 74 78 83 78 84 86 86 88 85 86 87 92 92 89 92 95 91 94 94 92 92 91 90 92 94 93 92 95 94 94 96 95 92 92 92 91 90 90 93
77 81 69 78 85 84 90 92 89 84 86 90 93 92 92 94 93 93 95 94 94 96 95 95 95 89 92 92 94 93 90 96 93 92 96 96 94 93 94 93 90 91 92
82 85 86 86 91 91 91 89 90 91 90 92 93 93 91 90 91 93 94 94 91 92 91 92 93 86 90 86 87 93 93 94 95 96 95 94 93 94 94 95 91 92 90
79 80 84 87 90 89 90 91 91 90 91 92 91 92 91 90 90 90 91 90 92 92 88 91 88 82 79 90 89 94 90 93 95 94 97 95 96 93 93 94 90 92 90

GFSGL_sfc_rhum_090.txt.gz
RH
94 91 89 88 87 90 94 96 94 95 95 95 94 98 99 99 99 99 99 98 95 97 98 97 98 97 97 96 94 92 92 90 90 89 85 80 76 74 81 88 86 89 82
97 90 89 90 92 94 96 95 96 95 94 95 97 97 98 99 99 99 98 98 96 98 98 98 99 98 98 97 96 95 93 89 91 90 85 91 89 80 79 81 79 74 81
98 94 92 94 94 94 94 96 96 97 98 97 97 97 97 98 99 99 98 97 98 93 95 96 98 98 99 98 96 96 97 96 96 97 88 86 86 86 84 80 79 77 70
98 96 98 97 96 96 94 94 93 90 91 91 91 92 92 92 97 99 98 99 98 97 97 97 97 97 97 97 96 94 95 97 96 96 90 87 88 86 82 82 89 94 95
95 97 98 97 95 94 94 92 90 88 86 86 89 90 89 88 88 98 99 99 98 98 96 93 96 97 99 99 97 98 96 97 95 92 94 92 93 96 98 95 97 95 97
93 96 95 95 94 95 94 94 92 92 92 91 93 94 96 92 98 98 96 94 93 94 96 94 94 94 95 96 96 97 95 96 99 99 98 99 97 94 91 93 94 98 100
92 92 90 91 93 92 90 91 93 95 93 95 95 94 96 95 95 93 92 90 93 94 93 92 92 90 90 88 92 92 93 93 95 90 94 97 93 95 95 93 97 98 98
92 90 89 88 90 89 89 91 93 93 94 95 96 94 94 93 93 92 91 88 90 90 91 93 95 97 93 91 90 93 95 94 94 92 95 97 96 93 93 91 95 97 95
97 96 94 95 94 91 92 93 92 93 94 95 94 94 94 95 90 90 86 88 92 94 92 92 94 95 92 88 88 92 96 98 85 82 81 77 73 80 88 94 99 98 99
98 98 98 98 97 99 97 95 95 94 93 91 94 97 97 97 92 91 85 88 92 92 92 94 93 94 91 85 86 88 95 98 93 91 91 93 89 80 76 95 98 98 98
98 98 97 98 99 100 98 98 96 95 94 93 93 95 95 96 98 96 92 90 91 93 94 96 98 92 89 87 86 91 94 92 94 92 91 91 92 95 92 89 93 89 89
97 96 97 97 97 98 99 99 98 97 96 96 95 95 96 98 97 97 95 90 90 91 95 94 90 85 84 84 85 82 85 93 94 92 92 91 89 90 96 94 91 90 93
96 97 97 96 96 97 96 98 97 97 97 96 94 95 96 96 97 96 94 93 92 94 93 87 81 82 83 85 80 82 88 91 89 88 92 96 98 97 91 91 90 89 84
93 94 95 94 95 94 93 95 94 96 96 96 96 96 96 96 96 96 96 95 93 90 88 89 86 87 87 87 87 88 90 91 93 94 94 98 95 89 87 93 95 93 87
90 91 92 90 93 93 93 94 92 96 95 95 96 96 97 97 98 97 97 97 96 91 90 90 91 91 92 92 91 91 91 90 92 93 94 94 91 88 82 80 77 84 91
81 79 82 81 80 78 81 90 80 80 78 77 78 86 89 80 81 84 81 76 72 74 85 91 94 94 93 92 92 92 92 89 91 88 92 91 91 89 88 85 81 87 90
94 90 92 85 83 84 84 84 92 84 75 77 76 73 70 71 74 75 74 72 72 76 90 94 96 96 94 93 91 90 95 95 86 90 93 95 95 92 91 89 85 86 88
94 94 96 96 97 94 93 96 95 95 96 97 92 84 76 72 69 71 72 75 88 85 91 94 97 96 94 92 86 87 92 92 93 92 95 96 98 96 96 94 91 97 94
96 96 96 97 96 96 96 94 96 96 96 96 94 90 87 76 76 78 80 92 95 96 93 94 97 97 93 92 97 97 97 98 100 99 98 96 100 97 97 97 93 95 95
93 90 93 95 95 94 93 93 92 94 95 95 95 98 96 87 94 95 96 96 96 96 94 91 92 95 98 96 99 100 98 99 97 96 100 100 100 99 99 98 98 99 97
95 92 92 93 94 95 96 93 89 91 94 95 98 97 90 90 97 97 95 98 99 98 98 95 98 99 99 98 94 97 98 99 99 99 99 99 100 100 98 98 98 96 95
92 90 88 92 92 96 94 89 88 88 89 93 96 96 95 97 98 98 97 99 100 99 98 95 96 99 100 98 97 99 100 100 100 100 100 100 100 100 98 99 99 100 98
93 93 96 98 92 93 94 94 97 97 97 97 97 96 97 98 98 98 100 100 99 100 99 95 97 98 99 100 99 96 96 100 100 100 100 100 100 100 100 100 100 100 100
96 97 96 96 98 93 95 98 99 99 97 99 100 100 99 100 100 100 100 100 100 100 100 100 98 96 99 100 100 100 97 99 100 99 100 100 100 100 100 100 99 100 100
97 98 98 99 100 100 99 98 99 100 100 100 100 99 99 100 100 100 100 100 100 100 100 100 100 96 95 100 100 98 100 100 100 100 100 100 100 100 100 100 100 99 100
96 96 98 98 98 98 98 98 99 99 99 99 100 100 100 99 99 100 100 99 95 97 100 100 99 97 100 98 93 98 100 100 100 100 100 99 100 100 100 100 100 100 100